<?xml version="1.0" encoding="UTF-8"?>
<gpx version="1.1" creator="https://www.youtrack.es" xsi:schemaLocation="http://www.topografix.com/GPX/1/1 http://www.topografix.com/GPX/1/1/gpx.xsd http://www.garmin.com/xmlschemas/GpxExtensions/v3 http://www.garmin.com/xmlschemas/GpxExtensionsv3.xsd http://www.garmin.com/xmlschemas/TrackPointExtension/v1 http://www.garmin.com/xmlschemas/TrackPointExtensionv1.xsd" xmlns:gpxtpx="http://www.garmin.com/xmlschemas/TrackPointExtension/v1" xmlns:gpxx="http://www.garmin.com/xmlschemas/GpxExtensions/v3" xmlns:xsi="http://www.w3.org/2001/XMLSchema-instance">
  <metadata>
    <link href="https://www.youtrack.es">
      <text>YouTrack.es</text>
    </link>
    <time>2026-05-07T16:52:32Z</time>
  </metadata>
  <trk>
    <src>https://www.youtrack.es</src>
    <link href="https://www.youtrack.es/ruta/6704-caminha-redondela">
      <text>YouTrack.es</text>
    </link>
    <trkseg>
      <trkpt lat="41.888192" lon="-8.849713">
        <ele>0.034</ele>
        <time>1970-01-01T01:00:00Z</time>
      </trkpt>
      <trkpt lat="41.889031" lon="-8.849777">
        <ele>0.655</ele>
        <time>1970-01-01T01:00:00Z</time>
      </trkpt>
      <trkpt lat="41.889087" lon="-8.850818">
        <ele>4.110</ele>
        <time>1970-01-01T01:00:00Z</time>
      </trkpt>
      <trkpt lat="41.8884" lon="-8.850871">
        <ele>5.407</ele>
        <time>1970-01-01T01:00:00Z</time>
      </trkpt>
      <trkpt lat="41.888368" lon="-8.852051">
        <ele>16.635</ele>
        <time>1970-01-01T01:00:00Z</time>
      </trkpt>
      <trkpt lat="41.888847" lon="-8.85247">
        <ele>21.849</ele>
        <time>1970-01-01T01:00:00Z</time>
      </trkpt>
      <trkpt lat="41.888847" lon="-8.852706">
        <ele>25.064</ele>
        <time>1970-01-01T01:00:00Z</time>
      </trkpt>
      <trkpt lat="41.888552" lon="-8.852878">
        <ele>26.560</ele>
        <time>1970-01-01T01:00:00Z</time>
      </trkpt>
      <trkpt lat="41.888768" lon="-8.853832">
        <ele>35.441</ele>
        <time>1970-01-01T01:00:00Z</time>
      </trkpt>
      <trkpt lat="41.888788" lon="-8.85497">
        <ele>36.845</ele>
        <time>1970-01-01T01:00:00Z</time>
      </trkpt>
      <trkpt lat="41.888752" lon="-8.855656">
        <ele>38.631</ele>
        <time>1970-01-01T01:00:00Z</time>
      </trkpt>
      <trkpt lat="41.889111" lon="-8.856922">
        <ele>39.833</ele>
        <time>1970-01-01T01:00:00Z</time>
      </trkpt>
      <trkpt lat="41.889151" lon="-8.857502">
        <ele>42.023</ele>
        <time>1970-01-01T01:00:00Z</time>
      </trkpt>
      <trkpt lat="41.888823" lon="-8.857609">
        <ele>42.215</ele>
        <time>1970-01-01T01:00:00Z</time>
      </trkpt>
      <trkpt lat="41.888606" lon="-8.857673">
        <ele>41.607</ele>
        <time>1970-01-01T01:00:00Z</time>
      </trkpt>
      <trkpt lat="41.888307" lon="-8.857883">
        <ele>40.275</ele>
        <time>1970-01-01T01:00:00Z</time>
      </trkpt>
      <trkpt lat="41.888411" lon="-8.858076">
        <ele>42.119</ele>
        <time>1970-01-01T01:00:00Z</time>
      </trkpt>
      <trkpt lat="41.888598" lon="-8.858119">
        <ele>44.894</ele>
        <time>1970-01-01T01:00:00Z</time>
      </trkpt>
      <trkpt lat="41.889054" lon="-8.858221">
        <ele>50.970</ele>
        <time>1970-01-01T01:00:00Z</time>
      </trkpt>
      <trkpt lat="41.889449" lon="-8.858328">
        <ele>50.981</ele>
        <time>1970-01-01T01:00:00Z</time>
      </trkpt>
      <trkpt lat="41.889625" lon="-8.858591">
        <ele>54.485</ele>
        <time>1970-01-01T01:00:00Z</time>
      </trkpt>
      <trkpt lat="41.889844" lon="-8.858913">
        <ele>60.021</ele>
        <time>1970-01-01T01:00:00Z</time>
      </trkpt>
      <trkpt lat="41.890136" lon="-8.85909">
        <ele>58.413</ele>
        <time>1970-01-01T01:00:00Z</time>
      </trkpt>
      <trkpt lat="41.890387" lon="-8.859428">
        <ele>61.043</ele>
        <time>1970-01-01T01:00:00Z</time>
      </trkpt>
      <trkpt lat="41.890887" lon="-8.859567">
        <ele>52.307</ele>
        <time>1970-01-01T01:00:00Z</time>
      </trkpt>
      <trkpt lat="41.891174" lon="-8.859889">
        <ele>53.907</ele>
        <time>1970-01-01T01:00:00Z</time>
      </trkpt>
      <trkpt lat="41.891366" lon="-8.860109">
        <ele>55.593</ele>
        <time>1970-01-01T01:00:00Z</time>
      </trkpt>
      <trkpt lat="41.891681" lon="-8.86005">
        <ele>50.577</ele>
        <time>1970-01-01T01:00:00Z</time>
      </trkpt>
      <trkpt lat="41.891945" lon="-8.860007">
        <ele>46.012</ele>
        <time>1970-01-01T01:00:00Z</time>
      </trkpt>
      <trkpt lat="41.892069" lon="-8.860168">
        <ele>45.468</ele>
        <time>1970-01-01T01:00:00Z</time>
      </trkpt>
      <trkpt lat="41.892053" lon="-8.860431">
        <ele>47.549</ele>
        <time>1970-01-01T01:00:00Z</time>
      </trkpt>
      <trkpt lat="41.891929" lon="-8.860559">
        <ele>50.393</ele>
        <time>1970-01-01T01:00:00Z</time>
      </trkpt>
      <trkpt lat="41.891741" lon="-8.860624">
        <ele>53.859</ele>
        <time>1970-01-01T01:00:00Z</time>
      </trkpt>
      <trkpt lat="41.891509" lon="-8.860715">
        <ele>61.341</ele>
        <time>1970-01-01T01:00:00Z</time>
      </trkpt>
      <trkpt lat="41.891813" lon="-8.861289">
        <ele>60.281</ele>
        <time>1970-01-01T01:00:00Z</time>
      </trkpt>
      <trkpt lat="41.891853" lon="-8.861895">
        <ele>76.209</ele>
        <time>1970-01-01T01:00:00Z</time>
      </trkpt>
      <trkpt lat="41.891849" lon="-8.862383">
        <ele>90.007</ele>
        <time>1970-01-01T01:00:00Z</time>
      </trkpt>
      <trkpt lat="41.891801" lon="-8.862823">
        <ele>101.756</ele>
        <time>1970-01-01T01:00:00Z</time>
      </trkpt>
      <trkpt lat="41.891841" lon="-8.863049">
        <ele>105.330</ele>
        <time>1970-01-01T01:00:00Z</time>
      </trkpt>
      <trkpt lat="41.892212" lon="-8.863102">
        <ele>107.385</ele>
        <time>1970-01-01T01:00:00Z</time>
      </trkpt>
      <trkpt lat="41.892488" lon="-8.863247">
        <ele>106.831</ele>
        <time>1970-01-01T01:00:00Z</time>
      </trkpt>
      <trkpt lat="41.892795" lon="-8.863328">
        <ele>108.462</ele>
        <time>1970-01-01T01:00:00Z</time>
      </trkpt>
      <trkpt lat="41.892867" lon="-8.863193">
        <ele>108.166</ele>
        <time>1970-01-01T01:00:00Z</time>
      </trkpt>
      <trkpt lat="41.893087" lon="-8.863113">
        <ele>109.892</ele>
        <time>1970-01-01T01:00:00Z</time>
      </trkpt>
      <trkpt lat="41.893322" lon="-8.862855">
        <ele>105.946</ele>
        <time>1970-01-01T01:00:00Z</time>
      </trkpt>
      <trkpt lat="41.893554" lon="-8.862587">
        <ele>98.488</ele>
        <time>1970-01-01T01:00:00Z</time>
      </trkpt>
      <trkpt lat="41.894073" lon="-8.862539">
        <ele>95.016</ele>
        <time>1970-01-01T01:00:00Z</time>
      </trkpt>
      <trkpt lat="41.894265" lon="-8.862458">
        <ele>93.607</ele>
        <time>1970-01-01T01:00:00Z</time>
      </trkpt>
      <trkpt lat="41.8945" lon="-8.862711">
        <ele>100.596</ele>
        <time>1970-01-01T01:00:00Z</time>
      </trkpt>
      <trkpt lat="41.894788" lon="-8.862619">
        <ele>98.220</ele>
        <time>1970-01-01T01:00:00Z</time>
      </trkpt>
      <trkpt lat="41.895071" lon="-8.86234">
        <ele>87.425</ele>
        <time>1970-01-01T01:00:00Z</time>
      </trkpt>
      <trkpt lat="41.895191" lon="-8.862072">
        <ele>79.491</ele>
        <time>1970-01-01T01:00:00Z</time>
      </trkpt>
      <trkpt lat="41.895439" lon="-8.861836">
        <ele>74.842</ele>
        <time>1970-01-01T01:00:00Z</time>
      </trkpt>
      <trkpt lat="41.895682" lon="-8.861498">
        <ele>70.546</ele>
        <time>1970-01-01T01:00:00Z</time>
      </trkpt>
      <trkpt lat="41.895813" lon="-8.861262">
        <ele>67.092</ele>
        <time>1970-01-01T01:00:00Z</time>
      </trkpt>
      <trkpt lat="41.896082" lon="-8.861123">
        <ele>64.268</ele>
        <time>1970-01-01T01:00:00Z</time>
      </trkpt>
      <trkpt lat="41.896357" lon="-8.861021">
        <ele>64.142</ele>
        <time>1970-01-01T01:00:00Z</time>
      </trkpt>
      <trkpt lat="41.896625" lon="-8.860855">
        <ele>63.026</ele>
        <time>1970-01-01T01:00:00Z</time>
      </trkpt>
      <trkpt lat="41.896972" lon="-8.860801">
        <ele>61.207</ele>
        <time>1970-01-01T01:00:00Z</time>
      </trkpt>
      <trkpt lat="41.897435" lon="-8.860919">
        <ele>62.898</ele>
        <time>1970-01-01T01:00:00Z</time>
      </trkpt>
      <trkpt lat="41.897819" lon="-8.861182">
        <ele>62.552</ele>
        <time>1970-01-01T01:00:00Z</time>
      </trkpt>
      <trkpt lat="41.898274" lon="-8.861375">
        <ele>58.777</ele>
        <time>1970-01-01T01:00:00Z</time>
      </trkpt>
      <trkpt lat="41.89841" lon="-8.8613">
        <ele>53.313</ele>
        <time>1970-01-01T01:00:00Z</time>
      </trkpt>
      <trkpt lat="41.898845" lon="-8.861922">
        <ele>54.044</ele>
        <time>1970-01-01T01:00:00Z</time>
      </trkpt>
      <trkpt lat="41.899048" lon="-8.86211">
        <ele>54.168</ele>
        <time>1970-01-01T01:00:00Z</time>
      </trkpt>
      <trkpt lat="41.899919" lon="-8.862485">
        <ele>52.674</ele>
        <time>1970-01-01T01:00:00Z</time>
      </trkpt>
      <trkpt lat="41.900454" lon="-8.862877">
        <ele>58.572</ele>
        <time>1970-01-01T01:00:00Z</time>
      </trkpt>
      <trkpt lat="41.901153" lon="-8.863655">
        <ele>53.013</ele>
        <time>1970-01-01T01:00:00Z</time>
      </trkpt>
      <trkpt lat="41.90156" lon="-8.864089">
        <ele>49.914</ele>
        <time>1970-01-01T01:00:00Z</time>
      </trkpt>
      <trkpt lat="41.902402" lon="-8.86432">
        <ele>46.907</ele>
        <time>1970-01-01T01:00:00Z</time>
      </trkpt>
      <trkpt lat="41.90285" lon="-8.864534">
        <ele>45.179</ele>
        <time>1970-01-01T01:00:00Z</time>
      </trkpt>
      <trkpt lat="41.903073" lon="-8.86483">
        <ele>45.373</ele>
        <time>1970-01-01T01:00:00Z</time>
      </trkpt>
      <trkpt lat="41.903117" lon="-8.865414">
        <ele>47.728</ele>
        <time>1970-01-01T01:00:00Z</time>
      </trkpt>
      <trkpt lat="41.903021" lon="-8.86623">
        <ele>48.654</ele>
        <time>1970-01-01T01:00:00Z</time>
      </trkpt>
      <trkpt lat="41.903137" lon="-8.866873">
        <ele>47.345</ele>
        <time>1970-01-01T01:00:00Z</time>
      </trkpt>
      <trkpt lat="41.903277" lon="-8.867496">
        <ele>47.889</ele>
        <time>1970-01-01T01:00:00Z</time>
      </trkpt>
      <trkpt lat="41.903249" lon="-8.867968">
        <ele>46.815</ele>
        <time>1970-01-01T01:00:00Z</time>
      </trkpt>
      <trkpt lat="41.902836" lon="-8.868767">
        <ele>41.351</ele>
        <time>1970-01-01T01:00:00Z</time>
      </trkpt>
      <trkpt lat="41.902897" lon="-8.868853">
        <ele>41.101</ele>
        <time>1970-01-01T01:00:00Z</time>
      </trkpt>
      <trkpt lat="41.902838" lon="-8.869244">
        <ele>39.511</ele>
        <time>1970-01-01T01:00:00Z</time>
      </trkpt>
      <trkpt lat="41.90251" lon="-8.870628">
        <ele>39.007</ele>
        <time>1970-01-01T01:00:00Z</time>
      </trkpt>
      <trkpt lat="41.902514" lon="-8.871095">
        <ele>39.027</ele>
        <time>1970-01-01T01:00:00Z</time>
      </trkpt>
      <trkpt lat="41.902251" lon="-8.871379">
        <ele>39.121</ele>
        <time>1970-01-01T01:00:00Z</time>
      </trkpt>
      <trkpt lat="41.902179" lon="-8.871782">
        <ele>38.546</ele>
        <time>1970-01-01T01:00:00Z</time>
      </trkpt>
      <trkpt lat="41.902155" lon="-8.872082">
        <ele>38.062</ele>
        <time>1970-01-01T01:00:00Z</time>
      </trkpt>
      <trkpt lat="41.902039" lon="-8.872388">
        <ele>37.513</ele>
        <time>1970-01-01T01:00:00Z</time>
      </trkpt>
      <trkpt lat="41.901815" lon="-8.872737">
        <ele>37.447</ele>
        <time>1970-01-01T01:00:00Z</time>
      </trkpt>
      <trkpt lat="41.9016" lon="-8.873042">
        <ele>37.383</ele>
        <time>1970-01-01T01:00:00Z</time>
      </trkpt>
      <trkpt lat="41.901344" lon="-8.873214">
        <ele>35.245</ele>
        <time>1970-01-01T01:00:00Z</time>
      </trkpt>
      <trkpt lat="41.900986" lon="-8.873203">
        <ele>31.747</ele>
        <time>1970-01-01T01:00:00Z</time>
      </trkpt>
      <trkpt lat="41.900884" lon="-8.873281">
        <ele>30.511</ele>
        <time>1970-01-01T01:00:00Z</time>
      </trkpt>
      <trkpt lat="41.900709" lon="-8.873329">
        <ele>26.907</ele>
        <time>1970-01-01T01:00:00Z</time>
      </trkpt>
      <trkpt lat="41.900601" lon="-8.873437">
        <ele>24.546</ele>
        <time>1970-01-01T01:00:00Z</time>
      </trkpt>
      <trkpt lat="41.900545" lon="-8.87378">
        <ele>24.990</ele>
        <time>1970-01-01T01:00:00Z</time>
      </trkpt>
      <trkpt lat="41.900816" lon="-8.873807">
        <ele>31.395</ele>
        <time>1970-01-01T01:00:00Z</time>
      </trkpt>
      <trkpt lat="41.901076" lon="-8.87389">
        <ele>34.671</ele>
        <time>1970-01-01T01:00:00Z</time>
      </trkpt>
      <trkpt lat="41.901284" lon="-8.873954">
        <ele>36.762</ele>
        <time>1970-01-01T01:00:00Z</time>
      </trkpt>
      <trkpt lat="41.901481" lon="-8.873995">
        <ele>38.656</ele>
        <time>1970-01-01T01:00:00Z</time>
      </trkpt>
      <trkpt lat="41.901647" lon="-8.873901">
        <ele>40.792</ele>
        <time>1970-01-01T01:00:00Z</time>
      </trkpt>
      <trkpt lat="41.901873" lon="-8.874019">
        <ele>40.996</ele>
        <time>1970-01-01T01:00:00Z</time>
      </trkpt>
      <trkpt lat="41.902018" lon="-8.873936">
        <ele>41.231</ele>
        <time>1970-01-01T01:00:00Z</time>
      </trkpt>
      <trkpt lat="41.90222" lon="-8.874013">
        <ele>41.124</ele>
        <time>1970-01-01T01:00:00Z</time>
      </trkpt>
      <trkpt lat="41.902276" lon="-8.873946">
        <ele>41.707</ele>
        <time>1970-01-01T01:00:00Z</time>
      </trkpt>
      <trkpt lat="41.902406" lon="-8.874043">
        <ele>41.651</ele>
        <time>1970-01-01T01:00:00Z</time>
      </trkpt>
      <trkpt lat="41.902589" lon="-8.874223">
        <ele>42.445</ele>
        <time>1970-01-01T01:00:00Z</time>
      </trkpt>
      <trkpt lat="41.902795" lon="-8.87455">
        <ele>43.640</ele>
        <time>1970-01-01T01:00:00Z</time>
      </trkpt>
      <trkpt lat="41.902981" lon="-8.874818">
        <ele>42.246</ele>
        <time>1970-01-01T01:00:00Z</time>
      </trkpt>
      <trkpt lat="41.903288" lon="-8.875215">
        <ele>40.057</ele>
        <time>1970-01-01T01:00:00Z</time>
      </trkpt>
      <trkpt lat="41.903831" lon="-8.875346">
        <ele>42.251</ele>
        <time>1970-01-01T01:00:00Z</time>
      </trkpt>
      <trkpt lat="41.904102" lon="-8.875446">
        <ele>40.417</ele>
        <time>1970-01-01T01:00:00Z</time>
      </trkpt>
      <trkpt lat="41.904398" lon="-8.875856">
        <ele>37.787</ele>
        <time>1970-01-01T01:00:00Z</time>
      </trkpt>
      <trkpt lat="41.904691" lon="-8.876081">
        <ele>37.142</ele>
        <time>1970-01-01T01:00:00Z</time>
      </trkpt>
      <trkpt lat="41.905077" lon="-8.876275">
        <ele>36.026</ele>
        <time>1970-01-01T01:00:00Z</time>
      </trkpt>
      <trkpt lat="41.90544" lon="-8.876401">
        <ele>35.407</ele>
        <time>1970-01-01T01:00:00Z</time>
      </trkpt>
      <trkpt lat="41.905709" lon="-8.876382">
        <ele>33.450</ele>
        <time>1970-01-01T01:00:00Z</time>
      </trkpt>
      <trkpt lat="41.905528" lon="-8.876111">
        <ele>36.194</ele>
        <time>1970-01-01T01:00:00Z</time>
      </trkpt>
      <trkpt lat="41.905741" lon="-8.875859">
        <ele>36.569</ele>
        <time>1970-01-01T01:00:00Z</time>
      </trkpt>
      <trkpt lat="41.906031" lon="-8.875703">
        <ele>34.155</ele>
        <time>1970-01-01T01:00:00Z</time>
      </trkpt>
      <trkpt lat="41.906378" lon="-8.875652">
        <ele>31.786</ele>
        <time>1970-01-01T01:00:00Z</time>
      </trkpt>
      <trkpt lat="41.906698" lon="-8.875674">
        <ele>30.220</ele>
        <time>1970-01-01T01:00:00Z</time>
      </trkpt>
      <trkpt lat="41.907019" lon="-8.875738">
        <ele>25.836</ele>
        <time>1970-01-01T01:00:00Z</time>
      </trkpt>
      <trkpt lat="41.907346" lon="-8.875969">
        <ele>17.557</ele>
        <time>1970-01-01T01:00:00Z</time>
      </trkpt>
      <trkpt lat="41.907406" lon="-8.876012">
        <ele>16.200</ele>
        <time>1970-01-01T01:00:00Z</time>
      </trkpt>
      <trkpt lat="41.907308" lon="-8.876245">
        <ele>15.720</ele>
        <time>1970-01-01T01:00:00Z</time>
      </trkpt>
      <trkpt lat="41.907107" lon="-8.876556">
        <ele>16.607</ele>
        <time>1970-01-01T01:00:00Z</time>
      </trkpt>
      <trkpt lat="41.907506" lon="-8.876334">
        <ele>11.537</ele>
        <time>1970-01-01T01:00:00Z</time>
      </trkpt>
      <trkpt lat="41.907672" lon="-8.876114">
        <ele>10.971</ele>
        <time>1970-01-01T01:00:00Z</time>
      </trkpt>
      <trkpt lat="41.907761" lon="-8.876006">
        <ele>10.466</ele>
        <time>1970-01-01T01:00:00Z</time>
      </trkpt>
      <trkpt lat="41.907909" lon="-8.876124">
        <ele>7.412</ele>
        <time>1970-01-01T01:00:00Z</time>
      </trkpt>
      <trkpt lat="41.908041" lon="-8.875979">
        <ele>7.643</ele>
        <time>1970-01-01T01:00:00Z</time>
      </trkpt>
      <trkpt lat="41.908217" lon="-8.875977">
        <ele>8.097</ele>
        <time>1970-01-01T01:00:00Z</time>
      </trkpt>
      <trkpt lat="41.908372" lon="-8.876135">
        <ele>6.863</ele>
        <time>1970-01-01T01:00:00Z</time>
      </trkpt>
      <trkpt lat="41.908542" lon="-8.876387">
        <ele>3.816</ele>
        <time>1970-01-01T01:00:00Z</time>
      </trkpt>
      <trkpt lat="41.908909" lon="-8.876857">
        <ele>1.376</ele>
        <time>1970-01-01T01:00:00Z</time>
      </trkpt>
      <trkpt lat="41.909146" lon="-8.877044">
        <ele>1.013</ele>
        <time>1970-01-01T01:00:00Z</time>
      </trkpt>
      <trkpt lat="41.909629" lon="-8.876706">
        <ele>1.207</ele>
        <time>1970-01-01T01:00:00Z</time>
      </trkpt>
      <trkpt lat="41.909776" lon="-8.876159">
        <ele>4.863</ele>
        <time>1970-01-01T01:00:00Z</time>
      </trkpt>
      <trkpt lat="41.910124" lon="-8.875977">
        <ele>6.717</ele>
        <time>1970-01-01T01:00:00Z</time>
      </trkpt>
      <trkpt lat="41.910503" lon="-8.876288">
        <ele>5.942</ele>
        <time>1970-01-01T01:00:00Z</time>
      </trkpt>
      <trkpt lat="41.910411" lon="-8.876883">
        <ele>3.178</ele>
        <time>1970-01-01T01:00:00Z</time>
      </trkpt>
      <trkpt lat="41.910415" lon="-8.877382">
        <ele>1.749</ele>
        <time>1970-01-01T01:00:00Z</time>
      </trkpt>
      <trkpt lat="41.910762" lon="-8.877785">
        <ele>1.763</ele>
        <time>1970-01-01T01:00:00Z</time>
      </trkpt>
      <trkpt lat="41.911038" lon="-8.878369">
        <ele>2.379</ele>
        <time>1970-01-01T01:00:00Z</time>
      </trkpt>
      <trkpt lat="41.911329" lon="-8.878471">
        <ele>4.033</ele>
        <time>1970-01-01T01:00:00Z</time>
      </trkpt>
      <trkpt lat="41.911593" lon="-8.878439">
        <ele>8.123</ele>
        <time>1970-01-01T01:00:00Z</time>
      </trkpt>
      <trkpt lat="41.911717" lon="-8.878664">
        <ele>8.715</ele>
        <time>1970-01-01T01:00:00Z</time>
      </trkpt>
      <trkpt lat="41.911752" lon="-8.878852">
        <ele>8.107</ele>
        <time>1970-01-01T01:00:00Z</time>
      </trkpt>
      <trkpt lat="41.911732" lon="-8.878933">
        <ele>7.185</ele>
        <time>1970-01-01T01:00:00Z</time>
      </trkpt>
      <trkpt lat="41.911828" lon="-8.879018">
        <ele>8.649</ele>
        <time>1970-01-01T01:00:00Z</time>
      </trkpt>
      <trkpt lat="41.911892" lon="-8.879169">
        <ele>8.884</ele>
        <time>1970-01-01T01:00:00Z</time>
      </trkpt>
      <trkpt lat="41.91196" lon="-8.87949">
        <ele>8.090</ele>
        <time>1970-01-01T01:00:00Z</time>
      </trkpt>
      <trkpt lat="41.911974" lon="-8.879582">
        <ele>7.471</ele>
        <time>1970-01-01T01:00:00Z</time>
      </trkpt>
      <trkpt lat="41.912076" lon="-8.879662">
        <ele>9.565</ele>
        <time>1970-01-01T01:00:00Z</time>
      </trkpt>
      <trkpt lat="41.912168" lon="-8.879775">
        <ele>10.671</ele>
        <time>1970-01-01T01:00:00Z</time>
      </trkpt>
      <trkpt lat="41.912212" lon="-8.879979">
        <ele>8.252</ele>
        <time>1970-01-01T01:00:00Z</time>
      </trkpt>
      <trkpt lat="41.912359" lon="-8.88037">
        <ele>5.953</ele>
        <time>1970-01-01T01:00:00Z</time>
      </trkpt>
      <trkpt lat="41.912239" lon="-8.88059">
        <ele>1.508</ele>
        <time>1970-01-01T01:00:00Z</time>
      </trkpt>
      <trkpt lat="41.912323" lon="-8.881057">
        <ele>2.507</ele>
        <time>1970-01-01T01:00:00Z</time>
      </trkpt>
      <trkpt lat="41.912499" lon="-8.881266">
        <ele>3.027</ele>
        <time>1970-01-01T01:00:00Z</time>
      </trkpt>
      <trkpt lat="41.912894" lon="-8.881459">
        <ele>4.591</ele>
        <time>1970-01-01T01:00:00Z</time>
      </trkpt>
      <trkpt lat="41.913253" lon="-8.881508">
        <ele>3.746</ele>
        <time>1970-01-01T01:00:00Z</time>
      </trkpt>
      <trkpt lat="41.913465" lon="-8.881711">
        <ele>3.852</ele>
        <time>1970-01-01T01:00:00Z</time>
      </trkpt>
      <trkpt lat="41.913724" lon="-8.881819">
        <ele>5.413</ele>
        <time>1970-01-01T01:00:00Z</time>
      </trkpt>
      <trkpt lat="41.913996" lon="-8.882033">
        <ele>4.717</ele>
        <time>1970-01-01T01:00:00Z</time>
      </trkpt>
      <trkpt lat="41.914084" lon="-8.881803">
        <ele>6.323</ele>
        <time>1970-01-01T01:00:00Z</time>
      </trkpt>
      <trkpt lat="41.914255" lon="-8.881894">
        <ele>5.089</ele>
        <time>1970-01-01T01:00:00Z</time>
      </trkpt>
      <trkpt lat="41.914299" lon="-8.882151">
        <ele>3.006</ele>
        <time>1970-01-01T01:00:00Z</time>
      </trkpt>
      <trkpt lat="41.914802" lon="-8.882328">
        <ele>2.526</ele>
        <time>1970-01-01T01:00:00Z</time>
      </trkpt>
      <trkpt lat="41.914869" lon="-8.882291">
        <ele>2.607</ele>
        <time>1970-01-01T01:00:00Z</time>
      </trkpt>
      <trkpt lat="41.915046" lon="-8.882473">
        <ele>1.540</ele>
        <time>1970-01-01T01:00:00Z</time>
      </trkpt>
      <trkpt lat="41.915166" lon="-8.882629">
        <ele>1.664</ele>
        <time>1970-01-01T01:00:00Z</time>
      </trkpt>
      <trkpt lat="41.915377" lon="-8.882672">
        <ele>2.089</ele>
        <time>1970-01-01T01:00:00Z</time>
      </trkpt>
      <trkpt lat="41.915525" lon="-8.882741">
        <ele>2.035</ele>
        <time>1970-01-01T01:00:00Z</time>
      </trkpt>
      <trkpt lat="41.915784" lon="-8.882693">
        <ele>3.496</ele>
        <time>1970-01-01T01:00:00Z</time>
      </trkpt>
      <trkpt lat="41.916076" lon="-8.882875">
        <ele>3.530</ele>
        <time>1970-01-01T01:00:00Z</time>
      </trkpt>
      <trkpt lat="41.916215" lon="-8.883187">
        <ele>2.946</ele>
        <time>1970-01-01T01:00:00Z</time>
      </trkpt>
      <trkpt lat="41.916335" lon="-8.883433">
        <ele>2.463</ele>
        <time>1970-01-01T01:00:00Z</time>
      </trkpt>
      <trkpt lat="41.916515" lon="-8.8836">
        <ele>2.144</ele>
        <time>1970-01-01T01:00:00Z</time>
      </trkpt>
      <trkpt lat="41.917086" lon="-8.883466">
        <ele>2.818</ele>
        <time>1970-01-01T01:00:00Z</time>
      </trkpt>
      <trkpt lat="41.917249" lon="-8.883487">
        <ele>1.907</ele>
        <time>1970-01-01T01:00:00Z</time>
      </trkpt>
      <trkpt lat="41.917377" lon="-8.883364">
        <ele>2.888</ele>
        <time>1970-01-01T01:00:00Z</time>
      </trkpt>
      <trkpt lat="41.917652" lon="-8.883331">
        <ele>3.082</ele>
        <time>1970-01-01T01:00:00Z</time>
      </trkpt>
      <trkpt lat="41.91792" lon="-8.883235">
        <ele>3.947</ele>
        <time>1970-01-01T01:00:00Z</time>
      </trkpt>
      <trkpt lat="41.918223" lon="-8.883369">
        <ele>3.383</ele>
        <time>1970-01-01T01:00:00Z</time>
      </trkpt>
      <trkpt lat="41.918579" lon="-8.883525">
        <ele>2.894</ele>
        <time>1970-01-01T01:00:00Z</time>
      </trkpt>
      <trkpt lat="41.919205" lon="-8.883551">
        <ele>2.348</ele>
        <time>1970-01-01T01:00:00Z</time>
      </trkpt>
      <trkpt lat="41.919357" lon="-8.883026">
        <ele>7.234</ele>
        <time>1970-01-01T01:00:00Z</time>
      </trkpt>
      <trkpt lat="41.919493" lon="-8.882516">
        <ele>13.522</ele>
        <time>1970-01-01T01:00:00Z</time>
      </trkpt>
      <trkpt lat="41.919413" lon="-8.882312">
        <ele>17.362</ele>
        <time>1970-01-01T01:00:00Z</time>
      </trkpt>
      <trkpt lat="41.91899" lon="-8.881867">
        <ele>20.708</ele>
        <time>1970-01-01T01:00:00Z</time>
      </trkpt>
      <trkpt lat="41.91891" lon="-8.881674">
        <ele>22.107</ele>
        <time>1970-01-01T01:00:00Z</time>
      </trkpt>
      <trkpt lat="41.919081" lon="-8.881277">
        <ele>29.114</ele>
        <time>1970-01-01T01:00:00Z</time>
      </trkpt>
      <trkpt lat="41.919409" lon="-8.881153">
        <ele>32.438</ele>
        <time>1970-01-01T01:00:00Z</time>
      </trkpt>
      <trkpt lat="41.919676" lon="-8.880998">
        <ele>33.853</ele>
        <time>1970-01-01T01:00:00Z</time>
      </trkpt>
      <trkpt lat="41.919796" lon="-8.880687">
        <ele>36.889</ele>
        <time>1970-01-01T01:00:00Z</time>
      </trkpt>
      <trkpt lat="41.919796" lon="-8.880301">
        <ele>42.630</ele>
        <time>1970-01-01T01:00:00Z</time>
      </trkpt>
      <trkpt lat="41.920451" lon="-8.880435">
        <ele>44.284</ele>
        <time>1970-01-01T01:00:00Z</time>
      </trkpt>
      <trkpt lat="41.920778" lon="-8.88052">
        <ele>46.140</ele>
        <time>1970-01-01T01:00:00Z</time>
      </trkpt>
      <trkpt lat="41.921109" lon="-8.880445">
        <ele>50.445</ele>
        <time>1970-01-01T01:00:00Z</time>
      </trkpt>
      <trkpt lat="41.921281" lon="-8.880547">
        <ele>48.847</ele>
        <time>1970-01-01T01:00:00Z</time>
      </trkpt>
      <trkpt lat="41.921301" lon="-8.881052">
        <ele>38.711</ele>
        <time>1970-01-01T01:00:00Z</time>
      </trkpt>
      <trkpt lat="41.921459" lon="-8.881389">
        <ele>33.207</ele>
        <time>1970-01-01T01:00:00Z</time>
      </trkpt>
      <trkpt lat="41.922035" lon="-8.881475">
        <ele>33.256</ele>
        <time>1970-01-01T01:00:00Z</time>
      </trkpt>
      <trkpt lat="41.922239" lon="-8.881615">
        <ele>30.830</ele>
        <time>1970-01-01T01:00:00Z</time>
      </trkpt>
      <trkpt lat="41.92277" lon="-8.881722">
        <ele>30.265</ele>
        <time>1970-01-01T01:00:00Z</time>
      </trkpt>
      <trkpt lat="41.922877" lon="-8.881931">
        <ele>27.991</ele>
        <time>1970-01-01T01:00:00Z</time>
      </trkpt>
      <trkpt lat="41.923253" lon="-8.882173">
        <ele>25.892</ele>
        <time>1970-01-01T01:00:00Z</time>
      </trkpt>
      <trkpt lat="41.923516" lon="-8.882414">
        <ele>21.346</ele>
        <time>1970-01-01T01:00:00Z</time>
      </trkpt>
      <trkpt lat="41.923823" lon="-8.882511">
        <ele>20.712</ele>
        <time>1970-01-01T01:00:00Z</time>
      </trkpt>
      <trkpt lat="41.924015" lon="-8.882505">
        <ele>21.998</ele>
        <time>1970-01-01T01:00:00Z</time>
      </trkpt>
      <trkpt lat="41.924382" lon="-8.882393">
        <ele>24.515</ele>
        <time>1970-01-01T01:00:00Z</time>
      </trkpt>
      <trkpt lat="41.924937" lon="-8.882355">
        <ele>24.726</ele>
        <time>1970-01-01T01:00:00Z</time>
      </trkpt>
      <trkpt lat="41.924989" lon="-8.882183">
        <ele>26.607</ele>
        <time>1970-01-01T01:00:00Z</time>
      </trkpt>
      <trkpt lat="41.924931" lon="-8.881862">
        <ele>31.021</ele>
        <time>1970-01-01T01:00:00Z</time>
      </trkpt>
      <trkpt lat="41.92548" lon="-8.881894">
        <ele>33.535</ele>
        <time>1970-01-01T01:00:00Z</time>
      </trkpt>
      <trkpt lat="41.925787" lon="-8.882017">
        <ele>34.920</ele>
        <time>1970-01-01T01:00:00Z</time>
      </trkpt>
      <trkpt lat="41.926138" lon="-8.882012">
        <ele>36.536</ele>
        <time>1970-01-01T01:00:00Z</time>
      </trkpt>
      <trkpt lat="41.926298" lon="-8.881781">
        <ele>39.287</ele>
        <time>1970-01-01T01:00:00Z</time>
      </trkpt>
      <trkpt lat="41.926649" lon="-8.881685">
        <ele>41.751</ele>
        <time>1970-01-01T01:00:00Z</time>
      </trkpt>
      <trkpt lat="41.926833" lon="-8.881599">
        <ele>41.987</ele>
        <time>1970-01-01T01:00:00Z</time>
      </trkpt>
      <trkpt lat="41.927164" lon="-8.881647">
        <ele>39.727</ele>
        <time>1970-01-01T01:00:00Z</time>
      </trkpt>
      <trkpt lat="41.927224" lon="-8.881363">
        <ele>43.568</ele>
        <time>1970-01-01T01:00:00Z</time>
      </trkpt>
      <trkpt lat="41.929036" lon="-8.881626">
        <ele>40.014</ele>
        <time>1970-01-01T01:00:00Z</time>
      </trkpt>
      <trkpt lat="41.930085" lon="-8.881835">
        <ele>47.707</ele>
        <time>1970-01-01T01:00:00Z</time>
      </trkpt>
      <trkpt lat="41.930666" lon="-8.881942">
        <ele>49.814</ele>
        <time>1970-01-01T01:00:00Z</time>
      </trkpt>
      <trkpt lat="41.931422" lon="-8.882312">
        <ele>46.768</ele>
        <time>1970-01-01T01:00:00Z</time>
      </trkpt>
      <trkpt lat="41.933144" lon="-8.883144">
        <ele>47.333</ele>
        <time>1970-01-01T01:00:00Z</time>
      </trkpt>
      <trkpt lat="41.934836" lon="-8.88397">
        <ele>43.739</ele>
        <time>1970-01-01T01:00:00Z</time>
      </trkpt>
      <trkpt lat="41.936512" lon="-8.884764">
        <ele>44.870</ele>
        <time>1970-01-01T01:00:00Z</time>
      </trkpt>
      <trkpt lat="41.937214" lon="-8.884968">
        <ele>46.624</ele>
        <time>1970-01-01T01:00:00Z</time>
      </trkpt>
      <trkpt lat="41.938994" lon="-8.884538">
        <ele>45.750</ele>
        <time>1970-01-01T01:00:00Z</time>
      </trkpt>
      <trkpt lat="41.940766" lon="-8.884109">
        <ele>50.198</ele>
        <time>1970-01-01T01:00:00Z</time>
      </trkpt>
      <trkpt lat="41.940709" lon="-8.884359">
        <ele>45.515</ele>
        <time>1970-01-01T01:00:00Z</time>
      </trkpt>
      <trkpt lat="41.940831" lon="-8.884426">
        <ele>44.326</ele>
        <time>1970-01-01T01:00:00Z</time>
      </trkpt>
      <trkpt lat="41.941041" lon="-8.884313">
        <ele>44.907</ele>
        <time>1970-01-01T01:00:00Z</time>
      </trkpt>
      <trkpt lat="41.941262" lon="-8.88419">
        <ele>44.481</ele>
        <time>1970-01-01T01:00:00Z</time>
      </trkpt>
      <trkpt lat="41.942049" lon="-8.883809">
        <ele>46.415</ele>
        <time>1970-01-01T01:00:00Z</time>
      </trkpt>
      <trkpt lat="41.942336" lon="-8.883734">
        <ele>45.960</ele>
        <time>1970-01-01T01:00:00Z</time>
      </trkpt>
      <trkpt lat="41.942532" lon="-8.883525">
        <ele>45.056</ele>
        <time>1970-01-01T01:00:00Z</time>
      </trkpt>
      <trkpt lat="41.942799" lon="-8.883364">
        <ele>43.177</ele>
        <time>1970-01-01T01:00:00Z</time>
      </trkpt>
      <trkpt lat="41.942901" lon="-8.883315">
        <ele>42.081</ele>
        <time>1970-01-01T01:00:00Z</time>
      </trkpt>
      <trkpt lat="41.943218" lon="-8.882854">
        <ele>44.367</ele>
        <time>1970-01-01T01:00:00Z</time>
      </trkpt>
      <trkpt lat="41.943581" lon="-8.882688">
        <ele>44.247</ele>
        <time>1970-01-01T01:00:00Z</time>
      </trkpt>
      <trkpt lat="41.943892" lon="-8.882446">
        <ele>46.129</ele>
        <time>1970-01-01T01:00:00Z</time>
      </trkpt>
      <trkpt lat="41.944279" lon="-8.882403">
        <ele>43.421</ele>
        <time>1970-01-01T01:00:00Z</time>
      </trkpt>
      <trkpt lat="41.944479" lon="-8.882441">
        <ele>41.407</ele>
        <time>1970-01-01T01:00:00Z</time>
      </trkpt>
      <trkpt lat="41.944838" lon="-8.882259">
        <ele>47.016</ele>
        <time>1970-01-01T01:00:00Z</time>
      </trkpt>
      <trkpt lat="41.945401" lon="-8.882076">
        <ele>44.230</ele>
        <time>1970-01-01T01:00:00Z</time>
      </trkpt>
      <trkpt lat="41.945871" lon="-8.882194">
        <ele>42.795</ele>
        <time>1970-01-01T01:00:00Z</time>
      </trkpt>
      <trkpt lat="41.946326" lon="-8.882264">
        <ele>45.261</ele>
        <time>1970-01-01T01:00:00Z</time>
      </trkpt>
      <trkpt lat="41.946877" lon="-8.88243">
        <ele>39.982</ele>
        <time>1970-01-01T01:00:00Z</time>
      </trkpt>
      <trkpt lat="41.947176" lon="-8.882634">
        <ele>39.276</ele>
        <time>1970-01-01T01:00:00Z</time>
      </trkpt>
      <trkpt lat="41.947368" lon="-8.882849">
        <ele>39.592</ele>
        <time>1970-01-01T01:00:00Z</time>
      </trkpt>
      <trkpt lat="41.947707" lon="-8.882945">
        <ele>39.395</ele>
        <time>1970-01-01T01:00:00Z</time>
      </trkpt>
      <trkpt lat="41.948126" lon="-8.883004">
        <ele>38.149</ele>
        <time>1970-01-01T01:00:00Z</time>
      </trkpt>
      <trkpt lat="41.948908" lon="-8.883213">
        <ele>37.223</ele>
        <time>1970-01-01T01:00:00Z</time>
      </trkpt>
      <trkpt lat="41.949267" lon="-8.88338">
        <ele>36.907</ele>
        <time>1970-01-01T01:00:00Z</time>
      </trkpt>
      <trkpt lat="41.949682" lon="-8.883626">
        <ele>35.811</ele>
        <time>1970-01-01T01:00:00Z</time>
      </trkpt>
      <trkpt lat="41.950183" lon="-8.883777">
        <ele>31.935</ele>
        <time>1970-01-01T01:00:00Z</time>
      </trkpt>
      <trkpt lat="41.950141" lon="-8.883428">
        <ele>34.380</ele>
        <time>1970-01-01T01:00:00Z</time>
      </trkpt>
      <trkpt lat="41.950424" lon="-8.88331">
        <ele>32.146</ele>
        <time>1970-01-01T01:00:00Z</time>
      </trkpt>
      <trkpt lat="41.951038" lon="-8.883144">
        <ele>26.247</ele>
        <time>1970-01-01T01:00:00Z</time>
      </trkpt>
      <trkpt lat="41.951509" lon="-8.882849">
        <ele>25.411</ele>
        <time>1970-01-01T01:00:00Z</time>
      </trkpt>
      <trkpt lat="41.951952" lon="-8.882693">
        <ele>26.237</ele>
        <time>1970-01-01T01:00:00Z</time>
      </trkpt>
      <trkpt lat="41.952502" lon="-8.882677">
        <ele>23.857</ele>
        <time>1970-01-01T01:00:00Z</time>
      </trkpt>
      <trkpt lat="41.952905" lon="-8.882859">
        <ele>21.900</ele>
        <time>1970-01-01T01:00:00Z</time>
      </trkpt>
      <trkpt lat="41.953376" lon="-8.883069">
        <ele>22.820</ele>
        <time>1970-01-01T01:00:00Z</time>
      </trkpt>
      <trkpt lat="41.953791" lon="-8.883272">
        <ele>20.707</ele>
        <time>1970-01-01T01:00:00Z</time>
      </trkpt>
      <trkpt lat="41.953978" lon="-8.883594">
        <ele>14.757</ele>
        <time>1970-01-01T01:00:00Z</time>
      </trkpt>
      <trkpt lat="41.954166" lon="-8.883777">
        <ele>13.271</ele>
        <time>1970-01-01T01:00:00Z</time>
      </trkpt>
      <trkpt lat="41.954401" lon="-8.884018">
        <ele>12.816</ele>
        <time>1970-01-01T01:00:00Z</time>
      </trkpt>
      <trkpt lat="41.955279" lon="-8.884109">
        <ele>15.672</ele>
        <time>1970-01-01T01:00:00Z</time>
      </trkpt>
      <trkpt lat="41.956619" lon="-8.884351">
        <ele>18.243</ele>
        <time>1970-01-01T01:00:00Z</time>
      </trkpt>
      <trkpt lat="41.956998" lon="-8.884351">
        <ele>21.137</ele>
        <time>1970-01-01T01:00:00Z</time>
      </trkpt>
      <trkpt lat="41.957126" lon="-8.884297">
        <ele>23.343</ele>
        <time>1970-01-01T01:00:00Z</time>
      </trkpt>
      <trkpt lat="41.957334" lon="-8.8842">
        <ele>26.451</ele>
        <time>1970-01-01T01:00:00Z</time>
      </trkpt>
      <trkpt lat="41.957673" lon="-8.884093">
        <ele>28.701</ele>
        <time>1970-01-01T01:00:00Z</time>
      </trkpt>
      <trkpt lat="41.958115" lon="-8.884222">
        <ele>27.611</ele>
        <time>1970-01-01T01:00:00Z</time>
      </trkpt>
      <trkpt lat="41.958454" lon="-8.884281">
        <ele>29.807</ele>
        <time>1970-01-01T01:00:00Z</time>
      </trkpt>
      <trkpt lat="41.959077" lon="-8.884254">
        <ele>29.867</ele>
        <time>1970-01-01T01:00:00Z</time>
      </trkpt>
      <trkpt lat="41.959384" lon="-8.884174">
        <ele>34.011</ele>
        <time>1970-01-01T01:00:00Z</time>
      </trkpt>
      <trkpt lat="41.959587" lon="-8.884109">
        <ele>35.986</ele>
        <time>1970-01-01T01:00:00Z</time>
      </trkpt>
      <trkpt lat="41.959926" lon="-8.884158">
        <ele>33.032</ele>
        <time>1970-01-01T01:00:00Z</time>
      </trkpt>
      <trkpt lat="41.960138" lon="-8.884211">
        <ele>29.723</ele>
        <time>1970-01-01T01:00:00Z</time>
      </trkpt>
      <trkpt lat="41.960585" lon="-8.883916">
        <ele>35.727</ele>
        <time>1970-01-01T01:00:00Z</time>
      </trkpt>
      <trkpt lat="41.961059" lon="-8.883889">
        <ele>40.673</ele>
        <time>1970-01-01T01:00:00Z</time>
      </trkpt>
      <trkpt lat="41.961498" lon="-8.883862">
        <ele>40.819</ele>
        <time>1970-01-01T01:00:00Z</time>
      </trkpt>
      <trkpt lat="41.961973" lon="-8.88397">
        <ele>41.209</ele>
        <time>1970-01-01T01:00:00Z</time>
      </trkpt>
      <trkpt lat="41.962583" lon="-8.884217">
        <ele>34.519</ele>
        <time>1970-01-01T01:00:00Z</time>
      </trkpt>
      <trkpt lat="41.963421" lon="-8.884383">
        <ele>32.807</ele>
        <time>1970-01-01T01:00:00Z</time>
      </trkpt>
      <trkpt lat="41.963824" lon="-8.884447">
        <ele>30.423</ele>
        <time>1970-01-01T01:00:00Z</time>
      </trkpt>
      <trkpt lat="41.964163" lon="-8.884383">
        <ele>30.747</ele>
        <time>1970-01-01T01:00:00Z</time>
      </trkpt>
      <trkpt lat="41.964426" lon="-8.884297">
        <ele>32.522</ele>
        <time>1970-01-01T01:00:00Z</time>
      </trkpt>
      <trkpt lat="41.964621" lon="-8.884292">
        <ele>33.348</ele>
        <time>1970-01-01T01:00:00Z</time>
      </trkpt>
      <trkpt lat="41.965144" lon="-8.884093">
        <ele>35.299</ele>
        <time>1970-01-01T01:00:00Z</time>
      </trkpt>
      <trkpt lat="41.965419" lon="-8.884265">
        <ele>33.623</ele>
        <time>1970-01-01T01:00:00Z</time>
      </trkpt>
      <trkpt lat="41.965798" lon="-8.884329">
        <ele>33.629</ele>
        <time>1970-01-01T01:00:00Z</time>
      </trkpt>
      <trkpt lat="41.96646" lon="-8.884147">
        <ele>36.059</ele>
        <time>1970-01-01T01:00:00Z</time>
      </trkpt>
      <trkpt lat="41.966915" lon="-8.884013">
        <ele>36.303</ele>
        <time>1970-01-01T01:00:00Z</time>
      </trkpt>
      <trkpt lat="41.967242" lon="-8.883964">
        <ele>34.423</ele>
        <time>1970-01-01T01:00:00Z</time>
      </trkpt>
      <trkpt lat="41.967358" lon="-8.883846">
        <ele>35.407</ele>
        <time>1970-01-01T01:00:00Z</time>
      </trkpt>
      <trkpt lat="41.9678" lon="-8.8839">
        <ele>31.877</ele>
        <time>1970-01-01T01:00:00Z</time>
      </trkpt>
      <trkpt lat="41.968155" lon="-8.883889">
        <ele>32.181</ele>
        <time>1970-01-01T01:00:00Z</time>
      </trkpt>
      <trkpt lat="41.968454" lon="-8.88383">
        <ele>35.446</ele>
        <time>1970-01-01T01:00:00Z</time>
      </trkpt>
      <trkpt lat="41.970249" lon="-8.884013">
        <ele>36.312</ele>
        <time>1970-01-01T01:00:00Z</time>
      </trkpt>
      <trkpt lat="41.972072" lon="-8.884238">
        <ele>44.033</ele>
        <time>1970-01-01T01:00:00Z</time>
      </trkpt>
      <trkpt lat="41.973883" lon="-8.884436">
        <ele>45.167</ele>
        <time>1970-01-01T01:00:00Z</time>
      </trkpt>
      <trkpt lat="41.975695" lon="-8.884656">
        <ele>44.613</ele>
        <time>1970-01-01T01:00:00Z</time>
      </trkpt>
      <trkpt lat="41.977521" lon="-8.884839">
        <ele>43.273</ele>
        <time>1970-01-01T01:00:00Z</time>
      </trkpt>
      <trkpt lat="41.978351" lon="-8.884914">
        <ele>42.285</ele>
        <time>1970-01-01T01:00:00Z</time>
      </trkpt>
      <trkpt lat="41.979404" lon="-8.88485">
        <ele>42.113</ele>
        <time>1970-01-01T01:00:00Z</time>
      </trkpt>
      <trkpt lat="41.98119" lon="-8.884667">
        <ele>42.107</ele>
        <time>1970-01-01T01:00:00Z</time>
      </trkpt>
      <trkpt lat="41.983008" lon="-8.884485">
        <ele>44.239</ele>
        <time>1970-01-01T01:00:00Z</time>
      </trkpt>
      <trkpt lat="41.984803" lon="-8.884281">
        <ele>42.273</ele>
        <time>1970-01-01T01:00:00Z</time>
      </trkpt>
      <trkpt lat="41.986621" lon="-8.88412">
        <ele>40.888</ele>
        <time>1970-01-01T01:00:00Z</time>
      </trkpt>
      <trkpt lat="41.987371" lon="-8.883991">
        <ele>41.424</ele>
        <time>1970-01-01T01:00:00Z</time>
      </trkpt>
      <trkpt lat="41.988328" lon="-8.883584">
        <ele>39.435</ele>
        <time>1970-01-01T01:00:00Z</time>
      </trkpt>
      <trkpt lat="41.989931" lon="-8.882446">
        <ele>42.899</ele>
        <time>1970-01-01T01:00:00Z</time>
      </trkpt>
      <trkpt lat="41.991509" lon="-8.881255">
        <ele>51.025</ele>
        <time>1970-01-01T01:00:00Z</time>
      </trkpt>
      <trkpt lat="41.993128" lon="-8.88015">
        <ele>39.599</ele>
        <time>1970-01-01T01:00:00Z</time>
      </trkpt>
      <trkpt lat="41.993455" lon="-8.880161">
        <ele>36.907</ele>
        <time>1970-01-01T01:00:00Z</time>
      </trkpt>
      <trkpt lat="41.994141" lon="-8.880129">
        <ele>37.127</ele>
        <time>1970-01-01T01:00:00Z</time>
      </trkpt>
      <trkpt lat="41.994986" lon="-8.880333">
        <ele>30.507</ele>
        <time>1970-01-01T01:00:00Z</time>
      </trkpt>
      <trkpt lat="41.995871" lon="-8.880118">
        <ele>25.771</ele>
        <time>1970-01-01T01:00:00Z</time>
      </trkpt>
      <trkpt lat="41.997003" lon="-8.879324">
        <ele>21.455</ele>
        <time>1970-01-01T01:00:00Z</time>
      </trkpt>
      <trkpt lat="41.99745" lon="-8.879035">
        <ele>18.620</ele>
        <time>1970-01-01T01:00:00Z</time>
      </trkpt>
      <trkpt lat="41.998088" lon="-8.878917">
        <ele>13.496</ele>
        <time>1970-01-01T01:00:00Z</time>
      </trkpt>
      <trkpt lat="41.998319" lon="-8.878605">
        <ele>15.377</ele>
        <time>1970-01-01T01:00:00Z</time>
      </trkpt>
      <trkpt lat="41.999013" lon="-8.878219">
        <ele>18.051</ele>
        <time>1970-01-01T01:00:00Z</time>
      </trkpt>
      <trkpt lat="41.999587" lon="-8.877951">
        <ele>14.677</ele>
        <time>1970-01-01T01:00:00Z</time>
      </trkpt>
      <trkpt lat="41.999938" lon="-8.87779">
        <ele>12.523</ele>
        <time>1970-01-01T01:00:00Z</time>
      </trkpt>
      <trkpt lat="42.000001" lon="-8.8775">
        <ele>16.083</ele>
        <time>1970-01-01T01:00:00Z</time>
      </trkpt>
      <trkpt lat="42.00028" lon="-8.877339">
        <ele>16.911</ele>
        <time>1970-01-01T01:00:00Z</time>
      </trkpt>
      <trkpt lat="42.000791" lon="-8.877307">
        <ele>15.907</ele>
        <time>1970-01-01T01:00:00Z</time>
      </trkpt>
      <trkpt lat="42.001173" lon="-8.877093">
        <ele>16.724</ele>
        <time>1970-01-01T01:00:00Z</time>
      </trkpt>
      <trkpt lat="42.001524" lon="-8.876878">
        <ele>14.778</ele>
        <time>1970-01-01T01:00:00Z</time>
      </trkpt>
      <trkpt lat="42.001827" lon="-8.876867">
        <ele>10.453</ele>
        <time>1970-01-01T01:00:00Z</time>
      </trkpt>
      <trkpt lat="42.00225" lon="-8.876621">
        <ele>7.949</ele>
        <time>1970-01-01T01:00:00Z</time>
      </trkpt>
      <trkpt lat="42.002645" lon="-8.876631">
        <ele>9.390</ele>
        <time>1970-01-01T01:00:00Z</time>
      </trkpt>
      <trkpt lat="42.003374" lon="-8.877136">
        <ele>5.494</ele>
        <time>1970-01-01T01:00:00Z</time>
      </trkpt>
      <trkpt lat="42.003757" lon="-8.877522">
        <ele>9.050</ele>
        <time>1970-01-01T01:00:00Z</time>
      </trkpt>
      <trkpt lat="42.004115" lon="-8.878112">
        <ele>13.391</ele>
        <time>1970-01-01T01:00:00Z</time>
      </trkpt>
      <trkpt lat="42.004139" lon="-8.878294">
        <ele>11.981</ele>
        <time>1970-01-01T01:00:00Z</time>
      </trkpt>
      <trkpt lat="42.004243" lon="-8.878412">
        <ele>12.019</ele>
        <time>1970-01-01T01:00:00Z</time>
      </trkpt>
      <trkpt lat="42.004386" lon="-8.878895">
        <ele>10.607</ele>
        <time>1970-01-01T01:00:00Z</time>
      </trkpt>
      <trkpt lat="42.00449" lon="-8.879324">
        <ele>10.281</ele>
        <time>1970-01-01T01:00:00Z</time>
      </trkpt>
      <trkpt lat="42.004697" lon="-8.879743">
        <ele>9.925</ele>
        <time>1970-01-01T01:00:00Z</time>
      </trkpt>
      <trkpt lat="42.005" lon="-8.879893">
        <ele>10.080</ele>
        <time>1970-01-01T01:00:00Z</time>
      </trkpt>
      <trkpt lat="42.005206" lon="-8.880005">
        <ele>9.386</ele>
        <time>1970-01-01T01:00:00Z</time>
      </trkpt>
      <trkpt lat="42.005501" lon="-8.880081">
        <ele>9.057</ele>
        <time>1970-01-01T01:00:00Z</time>
      </trkpt>
      <trkpt lat="42.006406" lon="-8.880633">
        <ele>8.711</ele>
        <time>1970-01-01T01:00:00Z</time>
      </trkpt>
      <trkpt lat="42.00694" lon="-8.880923">
        <ele>7.797</ele>
        <time>1970-01-01T01:00:00Z</time>
      </trkpt>
      <trkpt lat="42.007598" lon="-8.881089">
        <ele>10.199</ele>
        <time>1970-01-01T01:00:00Z</time>
      </trkpt>
      <trkpt lat="42.007821" lon="-8.881352">
        <ele>8.407</ele>
        <time>1970-01-01T01:00:00Z</time>
      </trkpt>
      <trkpt lat="42.008331" lon="-8.881593">
        <ele>8.527</ele>
        <time>1970-01-01T01:00:00Z</time>
      </trkpt>
      <trkpt lat="42.008582" lon="-8.881701">
        <ele>8.807</ele>
        <time>1970-01-01T01:00:00Z</time>
      </trkpt>
      <trkpt lat="42.008889" lon="-8.881904">
        <ele>9.171</ele>
        <time>1970-01-01T01:00:00Z</time>
      </trkpt>
      <trkpt lat="42.009112" lon="-8.882001">
        <ele>8.815</ele>
        <time>1970-01-01T01:00:00Z</time>
      </trkpt>
      <trkpt lat="42.009383" lon="-8.882065">
        <ele>8.210</ele>
        <time>1970-01-01T01:00:00Z</time>
      </trkpt>
      <trkpt lat="42.009718" lon="-8.882157">
        <ele>7.736</ele>
        <time>1970-01-01T01:00:00Z</time>
      </trkpt>
      <trkpt lat="42.010615" lon="-8.88206">
        <ele>12.317</ele>
        <time>1970-01-01T01:00:00Z</time>
      </trkpt>
      <trkpt lat="42.011097" lon="-8.882114">
        <ele>13.311</ele>
        <time>1970-01-01T01:00:00Z</time>
      </trkpt>
      <trkpt lat="42.011376" lon="-8.881958">
        <ele>15.837</ele>
        <time>1970-01-01T01:00:00Z</time>
      </trkpt>
      <trkpt lat="42.011667" lon="-8.881679">
        <ele>19.086</ele>
        <time>1970-01-01T01:00:00Z</time>
      </trkpt>
      <trkpt lat="42.012026" lon="-8.881883">
        <ele>19.660</ele>
        <time>1970-01-01T01:00:00Z</time>
      </trkpt>
      <trkpt lat="42.012177" lon="-8.881985">
        <ele>18.726</ele>
        <time>1970-01-01T01:00:00Z</time>
      </trkpt>
      <trkpt lat="42.012425" lon="-8.881985">
        <ele>18.607</ele>
        <time>1970-01-01T01:00:00Z</time>
      </trkpt>
      <trkpt lat="42.01311" lon="-8.88213">
        <ele>15.860</ele>
        <time>1970-01-01T01:00:00Z</time>
      </trkpt>
      <trkpt lat="42.013431" lon="-8.882221">
        <ele>16.054</ele>
        <time>1970-01-01T01:00:00Z</time>
      </trkpt>
      <trkpt lat="42.013624" lon="-8.882344">
        <ele>15.759</ele>
        <time>1970-01-01T01:00:00Z</time>
      </trkpt>
      <trkpt lat="42.01378" lon="-8.882715">
        <ele>15.415</ele>
        <time>1970-01-01T01:00:00Z</time>
      </trkpt>
      <trkpt lat="42.013983" lon="-8.882918">
        <ele>15.396</ele>
        <time>1970-01-01T01:00:00Z</time>
      </trkpt>
      <trkpt lat="42.014278" lon="-8.88302">
        <ele>15.340</ele>
        <time>1970-01-01T01:00:00Z</time>
      </trkpt>
      <trkpt lat="42.014569" lon="-8.883283">
        <ele>14.226</ele>
        <time>1970-01-01T01:00:00Z</time>
      </trkpt>
      <trkpt lat="42.014607" lon="-8.883407">
        <ele>13.838</ele>
        <time>1970-01-01T01:00:00Z</time>
      </trkpt>
      <trkpt lat="42.014748" lon="-8.883546">
        <ele>13.570</ele>
        <time>1970-01-01T01:00:00Z</time>
      </trkpt>
      <trkpt lat="42.014956" lon="-8.883551">
        <ele>13.417</ele>
        <time>1970-01-01T01:00:00Z</time>
      </trkpt>
      <trkpt lat="42.01531" lon="-8.883696">
        <ele>12.407</ele>
        <time>1970-01-01T01:00:00Z</time>
      </trkpt>
      <trkpt lat="42.015705" lon="-8.88382">
        <ele>12.475</ele>
        <time>1970-01-01T01:00:00Z</time>
      </trkpt>
      <trkpt lat="42.0159" lon="-8.883798">
        <ele>12.739</ele>
        <time>1970-01-01T01:00:00Z</time>
      </trkpt>
      <trkpt lat="42.016267" lon="-8.883766">
        <ele>12.384</ele>
        <time>1970-01-01T01:00:00Z</time>
      </trkpt>
      <trkpt lat="42.016586" lon="-8.883948">
        <ele>10.570</ele>
        <time>1970-01-01T01:00:00Z</time>
      </trkpt>
      <trkpt lat="42.016908" lon="-8.88405">
        <ele>9.881</ele>
        <time>1970-01-01T01:00:00Z</time>
      </trkpt>
      <trkpt lat="42.017247" lon="-8.883997">
        <ele>9.695</ele>
        <time>1970-01-01T01:00:00Z</time>
      </trkpt>
      <trkpt lat="42.017642" lon="-8.883938">
        <ele>10.481</ele>
        <time>1970-01-01T01:00:00Z</time>
      </trkpt>
      <trkpt lat="42.017925" lon="-8.883948">
        <ele>9.175</ele>
        <time>1970-01-01T01:00:00Z</time>
      </trkpt>
      <trkpt lat="42.018459" lon="-8.88382">
        <ele>11.228</ele>
        <time>1970-01-01T01:00:00Z</time>
      </trkpt>
      <trkpt lat="42.018829" lon="-8.883836">
        <ele>12.220</ele>
        <time>1970-01-01T01:00:00Z</time>
      </trkpt>
      <trkpt lat="42.019383" lon="-8.883938">
        <ele>12.607</ele>
        <time>1970-01-01T01:00:00Z</time>
      </trkpt>
      <trkpt lat="42.019782" lon="-8.883852">
        <ele>14.429</ele>
        <time>1970-01-01T01:00:00Z</time>
      </trkpt>
      <trkpt lat="42.020607" lon="-8.883836">
        <ele>15.513</ele>
        <time>1970-01-01T01:00:00Z</time>
      </trkpt>
      <trkpt lat="42.02083" lon="-8.88383">
        <ele>14.798</ele>
        <time>1970-01-01T01:00:00Z</time>
      </trkpt>
      <trkpt lat="42.021252" lon="-8.884023">
        <ele>12.874</ele>
        <time>1970-01-01T01:00:00Z</time>
      </trkpt>
      <trkpt lat="42.021663" lon="-8.884061">
        <ele>13.175</ele>
        <time>1970-01-01T01:00:00Z</time>
      </trkpt>
      <trkpt lat="42.021954" lon="-8.884088">
        <ele>12.819</ele>
        <time>1970-01-01T01:00:00Z</time>
      </trkpt>
      <trkpt lat="42.022412" lon="-8.884308">
        <ele>11.845</ele>
        <time>1970-01-01T01:00:00Z</time>
      </trkpt>
      <trkpt lat="42.023141" lon="-8.884259">
        <ele>11.655</ele>
        <time>1970-01-01T01:00:00Z</time>
      </trkpt>
      <trkpt lat="42.023691" lon="-8.884104">
        <ele>14.007</ele>
        <time>1970-01-01T01:00:00Z</time>
      </trkpt>
      <trkpt lat="42.024349" lon="-8.884099">
        <ele>13.117</ele>
        <time>1970-01-01T01:00:00Z</time>
      </trkpt>
      <trkpt lat="42.024891" lon="-8.884082">
        <ele>14.407</ele>
        <time>1970-01-01T01:00:00Z</time>
      </trkpt>
      <trkpt lat="42.025102" lon="-8.884168">
        <ele>14.017</ele>
        <time>1970-01-01T01:00:00Z</time>
      </trkpt>
      <trkpt lat="42.025473" lon="-8.884297">
        <ele>14.551</ele>
        <time>1970-01-01T01:00:00Z</time>
      </trkpt>
      <trkpt lat="42.025572" lon="-8.884227">
        <ele>15.696</ele>
        <time>1970-01-01T01:00:00Z</time>
      </trkpt>
      <trkpt lat="42.025728" lon="-8.884286">
        <ele>15.812</ele>
        <time>1970-01-01T01:00:00Z</time>
      </trkpt>
      <trkpt lat="42.026007" lon="-8.884555">
        <ele>15.623</ele>
        <time>1970-01-01T01:00:00Z</time>
      </trkpt>
      <trkpt lat="42.026282" lon="-8.884592">
        <ele>16.527</ele>
        <time>1970-01-01T01:00:00Z</time>
      </trkpt>
      <trkpt lat="42.026648" lon="-8.884614">
        <ele>17.173</ele>
        <time>1970-01-01T01:00:00Z</time>
      </trkpt>
      <trkpt lat="42.026887" lon="-8.884512">
        <ele>18.138</ele>
        <time>1970-01-01T01:00:00Z</time>
      </trkpt>
      <trkpt lat="42.027158" lon="-8.884533">
        <ele>17.070</ele>
        <time>1970-01-01T01:00:00Z</time>
      </trkpt>
      <trkpt lat="42.027939" lon="-8.88419">
        <ele>15.617</ele>
        <time>1970-01-01T01:00:00Z</time>
      </trkpt>
      <trkpt lat="42.028095" lon="-8.883943">
        <ele>15.607</ele>
        <time>1970-01-01T01:00:00Z</time>
      </trkpt>
      <trkpt lat="42.028425" lon="-8.883664">
        <ele>16.345</ele>
        <time>1970-01-01T01:00:00Z</time>
      </trkpt>
      <trkpt lat="42.02882" lon="-8.883562">
        <ele>15.429</ele>
        <time>1970-01-01T01:00:00Z</time>
      </trkpt>
      <trkpt lat="42.029294" lon="-8.883369">
        <ele>14.384</ele>
        <time>1970-01-01T01:00:00Z</time>
      </trkpt>
      <trkpt lat="42.029565" lon="-8.883176">
        <ele>14.490</ele>
        <time>1970-01-01T01:00:00Z</time>
      </trkpt>
      <trkpt lat="42.030075" lon="-8.883154">
        <ele>13.241</ele>
        <time>1970-01-01T01:00:00Z</time>
      </trkpt>
      <trkpt lat="42.030127" lon="-8.883229">
        <ele>12.525</ele>
        <time>1970-01-01T01:00:00Z</time>
      </trkpt>
      <trkpt lat="42.031884" lon="-8.882505">
        <ele>15.451</ele>
        <time>1970-01-01T01:00:00Z</time>
      </trkpt>
      <trkpt lat="42.032932" lon="-8.882076">
        <ele>16.136</ele>
        <time>1970-01-01T01:00:00Z</time>
      </trkpt>
      <trkpt lat="42.033478" lon="-8.881899">
        <ele>18.717</ele>
        <time>1970-01-01T01:00:00Z</time>
      </trkpt>
      <trkpt lat="42.033864" lon="-8.881851">
        <ele>16.218</ele>
        <time>1970-01-01T01:00:00Z</time>
      </trkpt>
      <trkpt lat="42.033888" lon="-8.881706">
        <ele>17.607</ele>
        <time>1970-01-01T01:00:00Z</time>
      </trkpt>
      <trkpt lat="42.034187" lon="-8.881491">
        <ele>18.915</ele>
        <time>1970-01-01T01:00:00Z</time>
      </trkpt>
      <trkpt lat="42.03455" lon="-8.881245">
        <ele>20.029</ele>
        <time>1970-01-01T01:00:00Z</time>
      </trkpt>
      <trkpt lat="42.034574" lon="-8.881014">
        <ele>21.474</ele>
        <time>1970-01-01T01:00:00Z</time>
      </trkpt>
      <trkpt lat="42.034805" lon="-8.880719">
        <ele>22.520</ele>
        <time>1970-01-01T01:00:00Z</time>
      </trkpt>
      <trkpt lat="42.035219" lon="-8.88059">
        <ele>21.951</ele>
        <time>1970-01-01T01:00:00Z</time>
      </trkpt>
      <trkpt lat="42.035602" lon="-8.880349">
        <ele>24.215</ele>
        <time>1970-01-01T01:00:00Z</time>
      </trkpt>
      <trkpt lat="42.036104" lon="-8.880166">
        <ele>22.841</ele>
        <time>1970-01-01T01:00:00Z</time>
      </trkpt>
      <trkpt lat="42.036359" lon="-8.880134">
        <ele>23.073</ele>
        <time>1970-01-01T01:00:00Z</time>
      </trkpt>
      <trkpt lat="42.036645" lon="-8.879946">
        <ele>25.185</ele>
        <time>1970-01-01T01:00:00Z</time>
      </trkpt>
      <trkpt lat="42.036972" lon="-8.879861">
        <ele>24.413</ele>
        <time>1970-01-01T01:00:00Z</time>
      </trkpt>
      <trkpt lat="42.037626" lon="-8.879694">
        <ele>22.207</ele>
        <time>1970-01-01T01:00:00Z</time>
      </trkpt>
      <trkpt lat="42.037845" lon="-8.879828">
        <ele>21.649</ele>
        <time>1970-01-01T01:00:00Z</time>
      </trkpt>
      <trkpt lat="42.038024" lon="-8.880166">
        <ele>20.253</ele>
        <time>1970-01-01T01:00:00Z</time>
      </trkpt>
      <trkpt lat="42.038275" lon="-8.880333">
        <ele>22.038</ele>
        <time>1970-01-01T01:00:00Z</time>
      </trkpt>
      <trkpt lat="42.03863" lon="-8.880649">
        <ele>21.064</ele>
        <time>1970-01-01T01:00:00Z</time>
      </trkpt>
      <trkpt lat="42.038689" lon="-8.880515">
        <ele>22.485</ele>
        <time>1970-01-01T01:00:00Z</time>
      </trkpt>
      <trkpt lat="42.038821" lon="-8.880429">
        <ele>23.069</ele>
        <time>1970-01-01T01:00:00Z</time>
      </trkpt>
      <trkpt lat="42.038849" lon="-8.880172">
        <ele>24.955</ele>
        <time>1970-01-01T01:00:00Z</time>
      </trkpt>
      <trkpt lat="42.038936" lon="-8.879898">
        <ele>26.135</ele>
        <time>1970-01-01T01:00:00Z</time>
      </trkpt>
      <trkpt lat="42.039048" lon="-8.879716">
        <ele>25.986</ele>
        <time>1970-01-01T01:00:00Z</time>
      </trkpt>
      <trkpt lat="42.039279" lon="-8.879592">
        <ele>25.714</ele>
        <time>1970-01-01T01:00:00Z</time>
      </trkpt>
      <trkpt lat="42.039498" lon="-8.879297">
        <ele>28.207</ele>
        <time>1970-01-01T01:00:00Z</time>
      </trkpt>
      <trkpt lat="42.039733" lon="-8.879061">
        <ele>29.845</ele>
        <time>1970-01-01T01:00:00Z</time>
      </trkpt>
      <trkpt lat="42.039843" lon="-8.879029">
        <ele>30.449</ele>
        <time>1970-01-01T01:00:00Z</time>
      </trkpt>
      <trkpt lat="42.040064" lon="-8.879061">
        <ele>30.814</ele>
        <time>1970-01-01T01:00:00Z</time>
      </trkpt>
      <trkpt lat="42.040514" lon="-8.878857">
        <ele>30.650</ele>
        <time>1970-01-01T01:00:00Z</time>
      </trkpt>
      <trkpt lat="42.040893" lon="-8.878847">
        <ele>28.281</ele>
        <time>1970-01-01T01:00:00Z</time>
      </trkpt>
      <trkpt lat="42.041398" lon="-8.878289">
        <ele>35.375</ele>
        <time>1970-01-01T01:00:00Z</time>
      </trkpt>
      <trkpt lat="42.041474" lon="-8.877935">
        <ele>37.781</ele>
        <time>1970-01-01T01:00:00Z</time>
      </trkpt>
      <trkpt lat="42.042112" lon="-8.878149">
        <ele>36.977</ele>
        <time>1970-01-01T01:00:00Z</time>
      </trkpt>
      <trkpt lat="42.042502" lon="-8.878423">
        <ele>38.061</ele>
        <time>1970-01-01T01:00:00Z</time>
      </trkpt>
      <trkpt lat="42.043072" lon="-8.878605">
        <ele>39.027</ele>
        <time>1970-01-01T01:00:00Z</time>
      </trkpt>
      <trkpt lat="42.043653" lon="-8.878852">
        <ele>38.307</ele>
        <time>1970-01-01T01:00:00Z</time>
      </trkpt>
      <trkpt lat="42.044183" lon="-8.879362">
        <ele>38.399</ele>
        <time>1970-01-01T01:00:00Z</time>
      </trkpt>
      <trkpt lat="42.044498" lon="-8.879721">
        <ele>37.083</ele>
        <time>1970-01-01T01:00:00Z</time>
      </trkpt>
      <trkpt lat="42.044793" lon="-8.879914">
        <ele>35.968</ele>
        <time>1970-01-01T01:00:00Z</time>
      </trkpt>
      <trkpt lat="42.044797" lon="-8.880118">
        <ele>34.774</ele>
        <time>1970-01-01T01:00:00Z</time>
      </trkpt>
      <trkpt lat="42.044964" lon="-8.880488">
        <ele>33.145</ele>
        <time>1970-01-01T01:00:00Z</time>
      </trkpt>
      <trkpt lat="42.045239" lon="-8.880601">
        <ele>33.689</ele>
        <time>1970-01-01T01:00:00Z</time>
      </trkpt>
      <trkpt lat="42.04555" lon="-8.88044">
        <ele>34.745</ele>
        <time>1970-01-01T01:00:00Z</time>
      </trkpt>
      <trkpt lat="42.045542" lon="-8.88162">
        <ele>26.423</ele>
        <time>1970-01-01T01:00:00Z</time>
      </trkpt>
      <trkpt lat="42.045566" lon="-8.882328">
        <ele>24.983</ele>
        <time>1970-01-01T01:00:00Z</time>
      </trkpt>
      <trkpt lat="42.045733" lon="-8.882865">
        <ele>22.311</ele>
        <time>1970-01-01T01:00:00Z</time>
      </trkpt>
      <trkpt lat="42.045717" lon="-8.88317">
        <ele>20.607</ele>
        <time>1970-01-01T01:00:00Z</time>
      </trkpt>
      <trkpt lat="42.046024" lon="-8.883224">
        <ele>16.514</ele>
        <time>1970-01-01T01:00:00Z</time>
      </trkpt>
      <trkpt lat="42.046171" lon="-8.883294">
        <ele>14.928</ele>
        <time>1970-01-01T01:00:00Z</time>
      </trkpt>
      <trkpt lat="42.046514" lon="-8.883251">
        <ele>13.173</ele>
        <time>1970-01-01T01:00:00Z</time>
      </trkpt>
      <trkpt lat="42.046872" lon="-8.883219">
        <ele>12.189</ele>
        <time>1970-01-01T01:00:00Z</time>
      </trkpt>
      <trkpt lat="42.047569" lon="-8.88338">
        <ele>8.890</ele>
        <time>1970-01-01T01:00:00Z</time>
      </trkpt>
      <trkpt lat="42.047741" lon="-8.883482">
        <ele>8.154</ele>
        <time>1970-01-01T01:00:00Z</time>
      </trkpt>
      <trkpt lat="42.048143" lon="-8.883728">
        <ele>8.640</ele>
        <time>1970-01-01T01:00:00Z</time>
      </trkpt>
      <trkpt lat="42.048322" lon="-8.8839">
        <ele>7.939</ele>
        <time>1970-01-01T01:00:00Z</time>
      </trkpt>
      <trkpt lat="42.048334" lon="-8.884061">
        <ele>6.801</ele>
        <time>1970-01-01T01:00:00Z</time>
      </trkpt>
      <trkpt lat="42.048748" lon="-8.884179">
        <ele>7.421</ele>
        <time>1970-01-01T01:00:00Z</time>
      </trkpt>
      <trkpt lat="42.048884" lon="-8.884361">
        <ele>6.607</ele>
        <time>1970-01-01T01:00:00Z</time>
      </trkpt>
      <trkpt lat="42.049055" lon="-8.884463">
        <ele>5.915</ele>
        <time>1970-01-01T01:00:00Z</time>
      </trkpt>
      <trkpt lat="42.049457" lon="-8.884528">
        <ele>4.459</ele>
        <time>1970-01-01T01:00:00Z</time>
      </trkpt>
      <trkpt lat="42.049728" lon="-8.884656">
        <ele>3.574</ele>
        <time>1970-01-01T01:00:00Z</time>
      </trkpt>
      <trkpt lat="42.049963" lon="-8.884769">
        <ele>2.850</ele>
        <time>1970-01-01T01:00:00Z</time>
      </trkpt>
      <trkpt lat="42.050358" lon="-8.884699">
        <ele>3.861</ele>
        <time>1970-01-01T01:00:00Z</time>
      </trkpt>
      <trkpt lat="42.050374" lon="-8.884517">
        <ele>4.635</ele>
        <time>1970-01-01T01:00:00Z</time>
      </trkpt>
      <trkpt lat="42.051131" lon="-8.884651">
        <ele>4.481</ele>
        <time>1970-01-01T01:00:00Z</time>
      </trkpt>
      <trkpt lat="42.051529" lon="-8.88478">
        <ele>6.358</ele>
        <time>1970-01-01T01:00:00Z</time>
      </trkpt>
      <trkpt lat="42.051844" lon="-8.886035">
        <ele>6.352</ele>
        <time>1970-01-01T01:00:00Z</time>
      </trkpt>
      <trkpt lat="42.051810" lon="-8.885912">
        <ele>6.081</ele>
        <time>2019-07-06T15:25:40Z</time>
      </trkpt>
      <trkpt lat="42.052035" lon="-8.887001">
        <ele>7.761</ele>
        <time>2019-07-06T15:26:20Z</time>
      </trkpt>
      <trkpt lat="42.052389" lon="-8.887457">
        <ele>8.817</ele>
        <time>2019-07-06T15:27:00Z</time>
      </trkpt>
      <trkpt lat="42.053277" lon="-8.888422">
        <ele>9.507</ele>
        <time>2019-07-06T15:27:40Z</time>
      </trkpt>
      <trkpt lat="42.053759" lon="-8.888830">
        <ele>8.550</ele>
        <time>2019-07-06T15:28:20Z</time>
      </trkpt>
      <trkpt lat="42.054014" lon="-8.888787">
        <ele>8.754</ele>
        <time>2019-07-06T15:29:00Z</time>
      </trkpt>
      <trkpt lat="42.054777" lon="-8.888175">
        <ele>5.949</ele>
        <time>2019-07-06T15:29:40Z</time>
      </trkpt>
      <trkpt lat="42.055239" lon="-8.888047">
        <ele>4.475</ele>
        <time>2019-07-06T15:30:20Z</time>
      </trkpt>
      <trkpt lat="42.056951" lon="-8.888712">
        <ele>7.747</ele>
        <time>2019-07-06T15:31:00Z</time>
      </trkpt>
      <trkpt lat="42.058656" lon="-8.889474">
        <ele>11.928</ele>
        <time>2019-07-06T15:31:40Z</time>
      </trkpt>
      <trkpt lat="42.060409" lon="-8.890107">
        <ele>10.742</ele>
        <time>2019-07-06T15:32:20Z</time>
      </trkpt>
      <trkpt lat="42.062161" lon="-8.890815">
        <ele>8.456</ele>
        <time>2019-07-06T15:33:00Z</time>
      </trkpt>
      <trkpt lat="42.063396" lon="-8.891308">
        <ele>15.559</ele>
        <time>2019-07-06T15:33:40Z</time>
      </trkpt>
      <trkpt lat="42.064750" lon="-8.891931">
        <ele>21.314</ele>
        <time>2019-07-06T15:34:20Z</time>
      </trkpt>
      <trkpt lat="42.066470" lon="-8.892649">
        <ele>18.107</ele>
        <time>2019-07-06T15:35:00Z</time>
      </trkpt>
      <trkpt lat="42.067959" lon="-8.893143">
        <ele>22.887</ele>
        <time>2019-07-06T15:35:40Z</time>
      </trkpt>
      <trkpt lat="42.069664" lon="-8.892832">
        <ele>26.131</ele>
        <time>2019-07-06T15:36:20Z</time>
      </trkpt>
      <trkpt lat="42.071448" lon="-8.892446">
        <ele>23.486</ele>
        <time>2019-07-06T15:37:00Z</time>
      </trkpt>
      <trkpt lat="42.073240" lon="-8.892542">
        <ele>25.492</ele>
        <time>2019-07-06T15:37:40Z</time>
      </trkpt>
      <trkpt lat="42.075047" lon="-8.892660">
        <ele>28.334</ele>
        <time>2019-07-06T15:38:20Z</time>
      </trkpt>
      <trkpt lat="42.076776" lon="-8.893154">
        <ele>34.225</ele>
        <time>2019-07-06T15:39:00Z</time>
      </trkpt>
      <trkpt lat="42.077258" lon="-8.893508">
        <ele>36.039</ele>
        <time>2019-07-06T15:39:40Z</time>
      </trkpt>
      <trkpt lat="42.077938" lon="-8.893722">
        <ele>36.415</ele>
        <time>2019-07-06T15:40:20Z</time>
      </trkpt>
      <trkpt lat="42.078559" lon="-8.893497">
        <ele>35.765</ele>
        <time>2019-07-06T15:41:00Z</time>
      </trkpt>
      <trkpt lat="42.079571" lon="-8.892542">
        <ele>29.311</ele>
        <time>2019-07-06T15:41:40Z</time>
      </trkpt>
      <trkpt lat="42.080279" lon="-8.891448">
        <ele>34.007</ele>
        <time>2019-07-06T15:42:20Z</time>
      </trkpt>
      <trkpt lat="42.081036" lon="-8.890665">
        <ele>30.453</ele>
        <time>2019-07-06T15:43:00Z</time>
      </trkpt>
      <trkpt lat="42.081944" lon="-8.890053">
        <ele>37.037</ele>
        <time>2019-07-06T15:43:40Z</time>
      </trkpt>
      <trkpt lat="42.082485" lon="-8.889903">
        <ele>43.992</ele>
        <time>2019-07-06T15:44:20Z</time>
      </trkpt>
      <trkpt lat="42.083377" lon="-8.890246">
        <ele>42.438</ele>
        <time>2019-07-06T15:45:00Z</time>
      </trkpt>
      <trkpt lat="42.085121" lon="-8.890783">
        <ele>36.410</ele>
        <time>2019-07-06T15:45:40Z</time>
      </trkpt>
      <trkpt lat="42.086076" lon="-8.891062">
        <ele>34.241</ele>
        <time>2019-07-06T15:46:20Z</time>
      </trkpt>
      <trkpt lat="42.087223" lon="-8.891137">
        <ele>30.545</ele>
        <time>2019-07-06T15:47:00Z</time>
      </trkpt>
      <trkpt lat="42.087546" lon="-8.891190">
        <ele>30.596</ele>
        <time>2019-07-06T15:47:40Z</time>
      </trkpt>
      <trkpt lat="42.089197" lon="-8.892124">
        <ele>25.231</ele>
        <time>2019-07-06T15:48:20Z</time>
      </trkpt>
      <trkpt lat="42.090869" lon="-8.892907">
        <ele>19.324</ele>
        <time>2019-07-06T15:49:00Z</time>
      </trkpt>
      <trkpt lat="42.091742" lon="-8.893239">
        <ele>22.907</ele>
        <time>2019-07-06T15:49:40Z</time>
      </trkpt>
      <trkpt lat="42.092517" lon="-8.893164">
        <ele>24.651</ele>
        <time>2019-07-06T15:50:20Z</time>
      </trkpt>
      <trkpt lat="42.092939" lon="-8.892950">
        <ele>28.355</ele>
        <time>2019-07-06T15:51:00Z</time>
      </trkpt>
      <trkpt lat="42.093592" lon="-8.892714">
        <ele>32.930</ele>
        <time>2019-07-06T15:51:40Z</time>
      </trkpt>
      <trkpt lat="42.093934" lon="-8.892682">
        <ele>33.836</ele>
        <time>2019-07-06T15:52:20Z</time>
      </trkpt>
      <trkpt lat="42.094516" lon="-8.892295">
        <ele>44.778</ele>
        <time>2019-07-06T15:53:00Z</time>
      </trkpt>
      <trkpt lat="42.094723" lon="-8.892006">
        <ele>52.649</ele>
        <time>2019-07-06T15:53:40Z</time>
      </trkpt>
      <trkpt lat="42.095041" lon="-8.891813">
        <ele>57.643</ele>
        <time>2019-07-06T15:54:20Z</time>
      </trkpt>
      <trkpt lat="42.095590" lon="-8.891748">
        <ele>57.452</ele>
        <time>2019-07-06T15:55:00Z</time>
      </trkpt>
      <trkpt lat="42.095917" lon="-8.891308">
        <ele>65.453</ele>
        <time>2019-07-06T15:55:40Z</time>
      </trkpt>
      <trkpt lat="42.095781" lon="-8.890890">
        <ele>76.908</ele>
        <time>2019-07-06T15:56:20Z</time>
      </trkpt>
      <trkpt lat="42.095893" lon="-8.890718">
        <ele>78.707</ele>
        <time>2019-07-06T15:57:00Z</time>
      </trkpt>
      <trkpt lat="42.096283" lon="-8.890611">
        <ele>78.127</ele>
        <time>2019-07-06T15:57:40Z</time>
      </trkpt>
      <trkpt lat="42.096697" lon="-8.890225">
        <ele>88.791</ele>
        <time>2019-07-06T15:58:20Z</time>
      </trkpt>
      <trkpt lat="42.096992" lon="-8.889935">
        <ele>98.276</ele>
        <time>2019-07-06T15:59:00Z</time>
      </trkpt>
      <trkpt lat="42.097421" lon="-8.889999">
        <ele>100.282</ele>
        <time>2019-07-06T15:59:40Z</time>
      </trkpt>
      <trkpt lat="42.097429" lon="-8.889914">
        <ele>102.974</ele>
        <time>2019-07-06T16:00:20Z</time>
      </trkpt>
      <trkpt lat="42.097764" lon="-8.890010">
        <ele>105.495</ele>
        <time>2019-07-06T16:01:00Z</time>
      </trkpt>
      <trkpt lat="42.098106" lon="-8.890085">
        <ele>103.939</ele>
        <time>2019-07-06T16:01:40Z</time>
      </trkpt>
      <trkpt lat="42.098178" lon="-8.890225">
        <ele>98.626</ele>
        <time>2019-07-06T16:02:20Z</time>
      </trkpt>
      <trkpt lat="42.098488" lon="-8.890160">
        <ele>104.047</ele>
        <time>2019-07-06T16:03:00Z</time>
      </trkpt>
      <trkpt lat="42.098886" lon="-8.890225">
        <ele>107.011</ele>
        <time>2019-07-06T16:03:40Z</time>
      </trkpt>
      <trkpt lat="42.099181" lon="-8.890235">
        <ele>109.807</ele>
        <time>2019-07-06T16:04:20Z</time>
      </trkpt>
      <trkpt lat="42.099619" lon="-8.890257">
        <ele>112.824</ele>
        <time>2019-07-06T16:05:00Z</time>
      </trkpt>
      <trkpt lat="42.099921" lon="-8.890332">
        <ele>110.068</ele>
        <time>2019-07-06T16:05:40Z</time>
      </trkpt>
      <trkpt lat="42.100224" lon="-8.890482">
        <ele>104.983</ele>
        <time>2019-07-06T16:06:20Z</time>
      </trkpt>
      <trkpt lat="42.100606" lon="-8.890396">
        <ele>105.559</ele>
        <time>2019-07-06T16:07:00Z</time>
      </trkpt>
      <trkpt lat="42.100916" lon="-8.890300">
        <ele>104.241</ele>
        <time>2019-07-06T16:07:40Z</time>
      </trkpt>
      <trkpt lat="42.101187" lon="-8.890064">
        <ele>104.852</ele>
        <time>2019-07-06T16:08:20Z</time>
      </trkpt>
      <trkpt lat="42.101672" lon="-8.889656">
        <ele>105.896</ele>
        <time>2019-07-06T16:09:00Z</time>
      </trkpt>
      <trkpt lat="42.101879" lon="-8.889484">
        <ele>106.757</ele>
        <time>2019-07-06T16:09:40Z</time>
      </trkpt>
      <trkpt lat="42.101863" lon="-8.889195">
        <ele>106.900</ele>
        <time>2019-07-06T16:10:20Z</time>
      </trkpt>
      <trkpt lat="42.101895" lon="-8.889045">
        <ele>107.120</ele>
        <time>2019-07-06T16:11:00Z</time>
      </trkpt>
      <trkpt lat="42.102031" lon="-8.888894">
        <ele>106.707</ele>
        <time>2019-07-06T16:11:40Z</time>
      </trkpt>
      <trkpt lat="42.102309" lon="-8.888776">
        <ele>105.897</ele>
        <time>2019-07-06T16:12:20Z</time>
      </trkpt>
      <trkpt lat="42.102564" lon="-8.888583">
        <ele>104.261</ele>
        <time>2019-07-06T16:13:00Z</time>
      </trkpt>
      <trkpt lat="42.102795" lon="-8.888336">
        <ele>100.146</ele>
        <time>2019-07-06T16:13:40Z</time>
      </trkpt>
      <trkpt lat="42.102922" lon="-8.888111">
        <ele>98.582</ele>
        <time>2019-07-06T16:14:20Z</time>
      </trkpt>
      <trkpt lat="42.103126" lon="-8.887886">
        <ele>97.544</ele>
        <time>2019-07-06T16:15:00Z</time>
      </trkpt>
      <trkpt lat="42.103400" lon="-8.887661">
        <ele>96.725</ele>
        <time>2019-07-06T16:15:40Z</time>
      </trkpt>
      <trkpt lat="42.103535" lon="-8.887392">
        <ele>93.579</ele>
        <time>2019-07-06T16:16:20Z</time>
      </trkpt>
      <trkpt lat="42.103766" lon="-8.887070">
        <ele>92.885</ele>
        <time>2019-07-06T16:17:00Z</time>
      </trkpt>
      <trkpt lat="42.104005" lon="-8.886609">
        <ele>92.189</ele>
        <time>2019-07-06T16:17:40Z</time>
      </trkpt>
      <trkpt lat="42.104164" lon="-8.886319">
        <ele>89.217</ele>
        <time>2019-07-06T16:18:20Z</time>
      </trkpt>
      <trkpt lat="42.104578" lon="-8.886019">
        <ele>87.207</ele>
        <time>2019-07-06T16:19:00Z</time>
      </trkpt>
      <trkpt lat="42.104809" lon="-8.885880">
        <ele>84.380</ele>
        <time>2019-07-06T16:19:40Z</time>
      </trkpt>
      <trkpt lat="42.105071" lon="-8.885547">
        <ele>81.234</ele>
        <time>2019-07-06T16:20:20Z</time>
      </trkpt>
      <trkpt lat="42.105469" lon="-8.884903">
        <ele>77.039</ele>
        <time>2019-07-06T16:21:00Z</time>
      </trkpt>
      <trkpt lat="42.105652" lon="-8.884485">
        <ele>75.795</ele>
        <time>2019-07-06T16:21:40Z</time>
      </trkpt>
      <trkpt lat="42.105801" lon="-8.883616">
        <ele>76.967</ele>
        <time>2019-07-06T16:22:20Z</time>
      </trkpt>
      <trkpt lat="42.106759" lon="-8.882403">
        <ele>71.398</ele>
        <time>2019-07-06T16:23:00Z</time>
      </trkpt>
      <trkpt lat="42.106703" lon="-8.881835">
        <ele>64.332</ele>
        <time>2019-07-06T16:23:40Z</time>
      </trkpt>
      <trkpt lat="42.106934" lon="-8.881030">
        <ele>64.012</ele>
        <time>2019-07-06T16:24:20Z</time>
      </trkpt>
      <trkpt lat="42.107053" lon="-8.880579">
        <ele>63.832</ele>
        <time>2019-07-06T16:25:00Z</time>
      </trkpt>
      <trkpt lat="42.107316" lon="-8.880408">
        <ele>65.005</ele>
        <time>2019-07-06T16:25:40Z</time>
      </trkpt>
      <trkpt lat="42.107626" lon="-8.879936">
        <ele>64.507</ele>
        <time>2019-07-06T16:26:20Z</time>
      </trkpt>
      <trkpt lat="42.107706" lon="-8.879539">
        <ele>61.563</ele>
        <time>2019-07-06T16:27:00Z</time>
      </trkpt>
      <trkpt lat="42.107682" lon="-8.879356">
        <ele>59.857</ele>
        <time>2019-07-06T16:27:40Z</time>
      </trkpt>
      <trkpt lat="42.107802" lon="-8.878809">
        <ele>55.412</ele>
        <time>2019-07-06T16:28:20Z</time>
      </trkpt>
      <trkpt lat="42.107833" lon="-8.878444">
        <ele>53.048</ele>
        <time>2019-07-06T16:29:00Z</time>
      </trkpt>
      <trkpt lat="42.107802" lon="-8.878069">
        <ele>51.120</ele>
        <time>2019-07-06T16:29:40Z</time>
      </trkpt>
      <trkpt lat="42.107985" lon="-8.877468">
        <ele>47.971</ele>
        <time>2019-07-06T16:30:20Z</time>
      </trkpt>
      <trkpt lat="42.107905" lon="-8.877146">
        <ele>43.685</ele>
        <time>2019-07-06T16:31:00Z</time>
      </trkpt>
      <trkpt lat="42.108200" lon="-8.876374">
        <ele>39.986</ele>
        <time>2019-07-06T16:31:40Z</time>
      </trkpt>
      <trkpt lat="42.108566" lon="-8.875505">
        <ele>31.860</ele>
        <time>2019-07-06T16:32:20Z</time>
      </trkpt>
      <trkpt lat="42.108852" lon="-8.874893">
        <ele>29.326</ele>
        <time>2019-07-06T16:33:00Z</time>
      </trkpt>
      <trkpt lat="42.109003" lon="-8.874764">
        <ele>27.807</ele>
        <time>2019-07-06T16:33:40Z</time>
      </trkpt>
      <trkpt lat="42.109067" lon="-8.874443">
        <ele>24.330</ele>
        <time>2019-07-06T16:34:20Z</time>
      </trkpt>
      <trkpt lat="42.109027" lon="-8.873906">
        <ele>22.594</ele>
        <time>2019-07-06T16:35:00Z</time>
      </trkpt>
      <trkpt lat="42.109000" lon="-8.873724">
        <ele>23.449</ele>
        <time>2019-07-06T16:35:40Z</time>
      </trkpt>
      <trkpt lat="42.109269" lon="-8.873364">
        <ele>24.935</ele>
        <time>2019-07-06T16:36:20Z</time>
      </trkpt>
      <trkpt lat="42.109575" lon="-8.873257">
        <ele>24.887</ele>
        <time>2019-07-06T16:37:00Z</time>
      </trkpt>
      <trkpt lat="42.109794" lon="-8.873171">
        <ele>24.288</ele>
        <time>2019-07-06T16:37:40Z</time>
      </trkpt>
      <trkpt lat="42.109973" lon="-8.872806">
        <ele>25.132</ele>
        <time>2019-07-06T16:38:20Z</time>
      </trkpt>
      <trkpt lat="42.110053" lon="-8.872522">
        <ele>26.125</ele>
        <time>2019-07-06T16:39:00Z</time>
      </trkpt>
      <trkpt lat="42.110033" lon="-8.872125">
        <ele>29.426</ele>
        <time>2019-07-06T16:39:40Z</time>
      </trkpt>
      <trkpt lat="42.110132" lon="-8.871782">
        <ele>31.808</ele>
        <time>2019-07-06T16:40:20Z</time>
      </trkpt>
      <trkpt lat="42.110482" lon="-8.871514">
        <ele>32.207</ele>
        <time>2019-07-06T16:41:00Z</time>
      </trkpt>
      <trkpt lat="42.110813" lon="-8.871267">
        <ele>32.944</ele>
        <time>2019-07-06T16:41:40Z</time>
      </trkpt>
      <trkpt lat="42.110988" lon="-8.870838">
        <ele>34.768</ele>
        <time>2019-07-06T16:42:20Z</time>
      </trkpt>
      <trkpt lat="42.111111" lon="-8.870586">
        <ele>33.953</ele>
        <time>2019-07-06T16:43:00Z</time>
      </trkpt>
      <trkpt lat="42.111234" lon="-8.870291">
        <ele>33.269</ele>
        <time>2019-07-06T16:43:40Z</time>
      </trkpt>
      <trkpt lat="42.111290" lon="-8.870113">
        <ele>33.091</ele>
        <time>2019-07-06T16:44:20Z</time>
      </trkpt>
      <trkpt lat="42.111406" lon="-8.869915">
        <ele>31.442</ele>
        <time>2019-07-06T16:45:00Z</time>
      </trkpt>
      <trkpt lat="42.111306" lon="-8.869706">
        <ele>32.136</ele>
        <time>2019-07-06T16:45:40Z</time>
      </trkpt>
      <trkpt lat="42.111250" lon="-8.869470">
        <ele>31.662</ele>
        <time>2019-07-06T16:46:20Z</time>
      </trkpt>
      <trkpt lat="42.111362" lon="-8.869121">
        <ele>30.983</ele>
        <time>2019-07-06T16:47:00Z</time>
      </trkpt>
      <trkpt lat="42.111736" lon="-8.868847">
        <ele>27.011</ele>
        <time>2019-07-06T16:47:40Z</time>
      </trkpt>
      <trkpt lat="42.111939" lon="-8.868681">
        <ele>27.807</ele>
        <time>2019-07-06T16:48:20Z</time>
      </trkpt>
      <trkpt lat="42.111991" lon="-8.868467">
        <ele>30.818</ele>
        <time>2019-07-06T16:49:00Z</time>
      </trkpt>
      <trkpt lat="42.112158" lon="-8.868096">
        <ele>35.372</ele>
        <time>2019-07-06T16:49:40Z</time>
      </trkpt>
      <trkpt lat="42.112289" lon="-8.867812">
        <ele>37.147</ele>
        <time>2019-07-06T16:50:20Z</time>
      </trkpt>
      <trkpt lat="42.112365" lon="-8.867447">
        <ele>39.253</ele>
        <time>2019-07-06T16:51:00Z</time>
      </trkpt>
      <trkpt lat="42.112257" lon="-8.867404">
        <ele>43.645</ele>
        <time>2019-07-06T16:51:40Z</time>
      </trkpt>
      <trkpt lat="42.112114" lon="-8.867501">
        <ele>45.766</ele>
        <time>2019-07-06T16:52:20Z</time>
      </trkpt>
      <trkpt lat="42.111684" lon="-8.867962">
        <ele>45.430</ele>
        <time>2019-07-06T16:53:00Z</time>
      </trkpt>
      <trkpt lat="42.111425" lon="-8.867984">
        <ele>49.275</ele>
        <time>2019-07-06T16:53:40Z</time>
      </trkpt>
      <trkpt lat="42.111266" lon="-8.867823">
        <ele>55.328</ele>
        <time>2019-07-06T16:54:20Z</time>
      </trkpt>
      <trkpt lat="42.110876" lon="-8.867726">
        <ele>56.620</ele>
        <time>2019-07-06T16:55:00Z</time>
      </trkpt>
      <trkpt lat="42.110594" lon="-8.867533">
        <ele>57.007</ele>
        <time>2019-07-06T16:55:40Z</time>
      </trkpt>
      <trkpt lat="42.110339" lon="-8.867404">
        <ele>59.979</ele>
        <time>2019-07-06T16:56:20Z</time>
      </trkpt>
      <trkpt lat="42.109997" lon="-8.867329">
        <ele>61.753</ele>
        <time>2019-07-06T16:57:00Z</time>
      </trkpt>
      <trkpt lat="42.109452" lon="-8.867356">
        <ele>68.528</ele>
        <time>2019-07-06T16:57:40Z</time>
      </trkpt>
      <trkpt lat="42.109917" lon="-8.866911">
        <ele>72.014</ele>
        <time>2019-07-06T16:58:20Z</time>
      </trkpt>
      <trkpt lat="42.110462" lon="-8.866632">
        <ele>74.716</ele>
        <time>2019-07-06T16:59:00Z</time>
      </trkpt>
      <trkpt lat="42.111258" lon="-8.866482">
        <ele>78.597</ele>
        <time>2019-07-06T16:59:40Z</time>
      </trkpt>
      <trkpt lat="42.111632" lon="-8.866321">
        <ele>79.911</ele>
        <time>2019-07-06T17:00:20Z</time>
      </trkpt>
      <trkpt lat="42.112576" lon="-8.865361">
        <ele>78.615</ele>
        <time>2019-07-06T17:01:00Z</time>
      </trkpt>
      <trkpt lat="42.113057" lon="-8.864867">
        <ele>82.365</ele>
        <time>2019-07-06T17:01:40Z</time>
      </trkpt>
      <trkpt lat="42.114179" lon="-8.863413">
        <ele>81.211</ele>
        <time>2019-07-06T17:02:20Z</time>
      </trkpt>
      <trkpt lat="42.114235" lon="-8.863188">
        <ele>79.707</ele>
        <time>2019-07-06T17:03:00Z</time>
      </trkpt>
      <trkpt lat="42.114054" lon="-8.862866">
        <ele>87.133</ele>
        <time>2019-07-06T17:03:40Z</time>
      </trkpt>
      <trkpt lat="42.114768" lon="-8.862190">
        <ele>79.277</ele>
        <time>2019-07-06T17:04:20Z</time>
      </trkpt>
      <trkpt lat="42.114967" lon="-8.862029">
        <ele>83.272</ele>
        <time>2019-07-06T17:05:00Z</time>
      </trkpt>
      <trkpt lat="42.115210" lon="-8.861144">
        <ele>83.638</ele>
        <time>2019-07-06T17:05:40Z</time>
      </trkpt>
      <trkpt lat="42.115186" lon="-8.860592">
        <ele>82.080</ele>
        <time>2019-07-06T17:06:20Z</time>
      </trkpt>
      <trkpt lat="42.114971" lon="-8.860281">
        <ele>85.281</ele>
        <time>2019-07-06T17:07:00Z</time>
      </trkpt>
      <trkpt lat="42.114693" lon="-8.860039">
        <ele>84.935</ele>
        <time>2019-07-06T17:07:40Z</time>
      </trkpt>
      <trkpt lat="42.114366" lon="-8.859803">
        <ele>85.358</ele>
        <time>2019-07-06T17:08:20Z</time>
      </trkpt>
      <trkpt lat="42.114056" lon="-8.859610">
        <ele>82.752</ele>
        <time>2019-07-06T17:09:00Z</time>
      </trkpt>
      <trkpt lat="42.113849" lon="-8.859336">
        <ele>78.917</ele>
        <time>2019-07-06T17:09:40Z</time>
      </trkpt>
      <trkpt lat="42.113586" lon="-8.859111">
        <ele>80.407</ele>
        <time>2019-07-06T17:10:20Z</time>
      </trkpt>
      <trkpt lat="42.113547" lon="-8.858789">
        <ele>74.617</ele>
        <time>2019-07-06T17:11:00Z</time>
      </trkpt>
      <trkpt lat="42.114143" lon="-8.858575">
        <ele>63.151</ele>
        <time>2019-07-06T17:11:40Z</time>
      </trkpt>
      <trkpt lat="42.114155" lon="-8.858076">
        <ele>61.216</ele>
        <time>2019-07-06T17:12:20Z</time>
      </trkpt>
      <trkpt lat="42.114585" lon="-8.858044">
        <ele>59.982</ele>
        <time>2019-07-06T17:13:00Z</time>
      </trkpt>
      <trkpt lat="42.114669" lon="-8.857378">
        <ele>57.594</ele>
        <time>2019-07-06T17:13:40Z</time>
      </trkpt>
      <trkpt lat="42.114951" lon="-8.857116">
        <ele>56.275</ele>
        <time>2019-07-06T17:14:20Z</time>
      </trkpt>
      <trkpt lat="42.115369" lon="-8.856912">
        <ele>51.349</ele>
        <time>2019-07-06T17:15:00Z</time>
      </trkpt>
      <trkpt lat="42.115536" lon="-8.856568">
        <ele>50.095</ele>
        <time>2019-07-06T17:15:40Z</time>
      </trkpt>
      <trkpt lat="42.115882" lon="-8.855807">
        <ele>46.449</ele>
        <time>2019-07-06T17:16:20Z</time>
      </trkpt>
      <trkpt lat="42.115930" lon="-8.855592">
        <ele>46.523</ele>
        <time>2019-07-06T17:17:00Z</time>
      </trkpt>
      <trkpt lat="42.115755" lon="-8.855109">
        <ele>45.007</ele>
        <time>2019-07-06T17:17:40Z</time>
      </trkpt>
      <trkpt lat="42.115441" lon="-8.854514">
        <ele>40.311</ele>
        <time>2019-07-06T17:18:20Z</time>
      </trkpt>
      <trkpt lat="42.115544" lon="-8.854374">
        <ele>37.465</ele>
        <time>2019-07-06T17:19:00Z</time>
      </trkpt>
      <trkpt lat="42.115914" lon="-8.854508">
        <ele>34.580</ele>
        <time>2019-07-06T17:19:40Z</time>
      </trkpt>
      <trkpt lat="42.116161" lon="-8.854755">
        <ele>32.616</ele>
        <time>2019-07-06T17:20:20Z</time>
      </trkpt>
      <trkpt lat="42.116424" lon="-8.854798">
        <ele>29.388</ele>
        <time>2019-07-06T17:21:00Z</time>
      </trkpt>
      <trkpt lat="42.117108" lon="-8.854224">
        <ele>22.029</ele>
        <time>2019-07-06T17:21:40Z</time>
      </trkpt>
      <trkpt lat="42.117399" lon="-8.854165">
        <ele>19.723</ele>
        <time>2019-07-06T17:22:20Z</time>
      </trkpt>
      <trkpt lat="42.117693" lon="-8.854106">
        <ele>16.912</ele>
        <time>2019-07-06T17:23:00Z</time>
      </trkpt>
      <trkpt lat="42.118159" lon="-8.854224">
        <ele>10.632</ele>
        <time>2019-07-06T17:23:40Z</time>
      </trkpt>
      <trkpt lat="42.118210" lon="-8.853999">
        <ele>10.105</ele>
        <time>2019-07-06T17:24:20Z</time>
      </trkpt>
      <trkpt lat="42.117633" lon="-8.852395">
        <ele>14.907</ele>
        <time>2019-07-06T17:25:00Z</time>
      </trkpt>
      <trkpt lat="42.118352" lon="-8.851982">
        <ele>11.863</ele>
        <time>2019-07-06T17:25:40Z</time>
      </trkpt>
      <trkpt lat="42.118210" lon="-8.851279">
        <ele>15.467</ele>
        <time>2019-07-06T17:26:20Z</time>
      </trkpt>
      <trkpt lat="42.118206" lon="-8.850662">
        <ele>15.582</ele>
        <time>2019-07-06T17:27:00Z</time>
      </trkpt>
      <trkpt lat="42.118197" lon="-8.850233">
        <ele>15.678</ele>
        <time>2019-07-06T17:27:40Z</time>
      </trkpt>
      <trkpt lat="42.118537" lon="-8.850099">
        <ele>12.890</ele>
        <time>2019-07-06T17:28:20Z</time>
      </trkpt>
      <trkpt lat="42.118799" lon="-8.850002">
        <ele>11.361</ele>
        <time>2019-07-06T17:29:00Z</time>
      </trkpt>
      <trkpt lat="42.118795" lon="-8.849874">
        <ele>11.595</ele>
        <time>2019-07-06T17:29:40Z</time>
      </trkpt>
      <trkpt lat="42.119269" lon="-8.849648">
        <ele>7.475</ele>
        <time>2019-07-06T17:30:20Z</time>
      </trkpt>
      <trkpt lat="42.119722" lon="-8.849262">
        <ele>7.028</ele>
        <time>2019-07-06T17:31:00Z</time>
      </trkpt>
      <trkpt lat="42.119480" lon="-8.848865">
        <ele>6.720</ele>
        <time>2019-07-06T17:31:40Z</time>
      </trkpt>
      <trkpt lat="42.119241" lon="-8.848586">
        <ele>6.407</ele>
        <time>2019-07-06T17:32:20Z</time>
      </trkpt>
      <trkpt lat="42.118998" lon="-8.848098">
        <ele>7.069</ele>
        <time>2019-07-06T17:33:00Z</time>
      </trkpt>
      <trkpt lat="42.118867" lon="-8.847889">
        <ele>6.493</ele>
        <time>2019-07-06T17:33:40Z</time>
      </trkpt>
      <trkpt lat="42.118572" lon="-8.847679">
        <ele>7.428</ele>
        <time>2019-07-06T17:34:20Z</time>
      </trkpt>
      <trkpt lat="42.118322" lon="-8.847508">
        <ele>8.264</ele>
        <time>2019-07-06T17:35:00Z</time>
      </trkpt>
      <trkpt lat="42.117741" lon="-8.847470">
        <ele>15.596</ele>
        <time>2019-07-06T17:35:40Z</time>
      </trkpt>
      <trkpt lat="42.117661" lon="-8.847165">
        <ele>16.567</ele>
        <time>2019-07-06T17:36:20Z</time>
      </trkpt>
      <trkpt lat="42.117570" lon="-8.846966">
        <ele>17.171</ele>
        <time>2019-07-06T17:37:00Z</time>
      </trkpt>
      <trkpt lat="42.117323" lon="-8.846585">
        <ele>20.629</ele>
        <time>2019-07-06T17:37:40Z</time>
      </trkpt>
      <trkpt lat="42.117120" lon="-8.846354">
        <ele>25.000</ele>
        <time>2019-07-06T17:38:20Z</time>
      </trkpt>
      <trkpt lat="42.117036" lon="-8.846124">
        <ele>27.620</ele>
        <time>2019-07-06T17:39:00Z</time>
      </trkpt>
      <trkpt lat="42.116985" lon="-8.845888">
        <ele>28.407</ele>
        <time>2019-07-06T17:39:40Z</time>
      </trkpt>
      <trkpt lat="42.116818" lon="-8.845614">
        <ele>29.334</ele>
        <time>2019-07-06T17:40:20Z</time>
      </trkpt>
      <trkpt lat="42.116649" lon="-8.845287">
        <ele>29.378</ele>
        <time>2019-07-06T17:41:00Z</time>
      </trkpt>
      <trkpt lat="42.116782" lon="-8.844842">
        <ele>23.833</ele>
        <time>2019-07-06T17:41:40Z</time>
      </trkpt>
      <trkpt lat="42.116380" lon="-8.844616">
        <ele>30.049</ele>
        <time>2019-07-06T17:42:20Z</time>
      </trkpt>
      <trkpt lat="42.116151" lon="-8.844236">
        <ele>29.861</ele>
        <time>2019-07-06T17:43:00Z</time>
      </trkpt>
      <trkpt lat="42.116117" lon="-8.843822">
        <ele>22.722</ele>
        <time>2019-07-06T17:43:40Z</time>
      </trkpt>
      <trkpt lat="42.115950" lon="-8.843367">
        <ele>22.766</ele>
        <time>2019-07-06T17:44:20Z</time>
      </trkpt>
      <trkpt lat="42.115559" lon="-8.842862">
        <ele>22.414</ele>
        <time>2019-07-06T17:45:00Z</time>
      </trkpt>
      <trkpt lat="42.115337" lon="-8.842530">
        <ele>21.754</ele>
        <time>2019-07-06T17:45:40Z</time>
      </trkpt>
      <trkpt lat="42.114665" lon="-8.842197">
        <ele>21.609</ele>
        <time>2019-07-06T17:46:20Z</time>
      </trkpt>
      <trkpt lat="42.114179" lon="-8.841682">
        <ele>12.207</ele>
        <time>2019-07-06T17:47:00Z</time>
      </trkpt>
      <trkpt lat="42.113487" lon="-8.841103">
        <ele>13.433</ele>
        <time>2019-07-06T17:47:40Z</time>
      </trkpt>
      <trkpt lat="42.112946" lon="-8.840427">
        <ele>9.597</ele>
        <time>2019-07-06T17:48:20Z</time>
      </trkpt>
      <trkpt lat="42.112806" lon="-8.839901">
        <ele>14.552</ele>
        <time>2019-07-06T17:49:00Z</time>
      </trkpt>
      <trkpt lat="42.112854" lon="-8.839590">
        <ele>17.118</ele>
        <time>2019-07-06T17:49:40Z</time>
      </trkpt>
      <trkpt lat="42.112914" lon="-8.839311">
        <ele>18.380</ele>
        <time>2019-07-06T17:50:20Z</time>
      </trkpt>
      <trkpt lat="42.112926" lon="-8.838984">
        <ele>18.941</ele>
        <time>2019-07-06T17:51:00Z</time>
      </trkpt>
      <trkpt lat="42.112874" lon="-8.838662">
        <ele>18.885</ele>
        <time>2019-07-06T17:51:40Z</time>
      </trkpt>
      <trkpt lat="42.112806" lon="-8.838362">
        <ele>17.799</ele>
        <time>2019-07-06T17:52:20Z</time>
      </trkpt>
      <trkpt lat="42.112798" lon="-8.838125">
        <ele>17.607</ele>
        <time>2019-07-06T17:53:00Z</time>
      </trkpt>
      <trkpt lat="42.112572" lon="-8.837911">
        <ele>19.127</ele>
        <time>2019-07-06T17:53:40Z</time>
      </trkpt>
      <trkpt lat="42.112309" lon="-8.837863">
        <ele>19.507</ele>
        <time>2019-07-06T17:54:20Z</time>
      </trkpt>
      <trkpt lat="42.111887" lon="-8.837755">
        <ele>20.261</ele>
        <time>2019-07-06T17:55:00Z</time>
      </trkpt>
      <trkpt lat="42.111497" lon="-8.837541">
        <ele>23.125</ele>
        <time>2019-07-06T17:55:40Z</time>
      </trkpt>
      <trkpt lat="42.111294" lon="-8.837165">
        <ele>23.490</ele>
        <time>2019-07-06T17:56:20Z</time>
      </trkpt>
      <trkpt lat="42.111087" lon="-8.836688">
        <ele>21.636</ele>
        <time>2019-07-06T17:57:00Z</time>
      </trkpt>
      <trkpt lat="42.110968" lon="-8.836420">
        <ele>19.978</ele>
        <time>2019-07-06T17:57:40Z</time>
      </trkpt>
      <trkpt lat="42.110538" lon="-8.835926">
        <ele>20.149</ele>
        <time>2019-07-06T17:58:20Z</time>
      </trkpt>
      <trkpt lat="42.110295" lon="-8.835551">
        <ele>20.543</ele>
        <time>2019-07-06T17:59:00Z</time>
      </trkpt>
      <trkpt lat="42.110259" lon="-8.834875">
        <ele>18.112</ele>
        <time>2019-07-06T17:59:40Z</time>
      </trkpt>
      <trkpt lat="42.110228" lon="-8.833689">
        <ele>14.232</ele>
        <time>2019-07-06T18:00:20Z</time>
      </trkpt>
      <trkpt lat="42.110104" lon="-8.833410">
        <ele>15.805</ele>
        <time>2019-07-06T18:01:00Z</time>
      </trkpt>
      <trkpt lat="42.109762" lon="-8.833045">
        <ele>18.507</ele>
        <time>2019-07-06T18:01:40Z</time>
      </trkpt>
      <trkpt lat="42.109428" lon="-8.832595">
        <ele>16.623</ele>
        <time>2019-07-06T18:02:20Z</time>
      </trkpt>
      <trkpt lat="42.109378" lon="-8.832504">
        <ele>16.017</ele>
        <time>2019-07-06T18:03:00Z</time>
      </trkpt>
      <trkpt lat="42.109523" lon="-8.831860">
        <ele>5.812</ele>
        <time>2019-07-06T18:03:40Z</time>
      </trkpt>
      <trkpt lat="42.109491" lon="-8.830991">
        <ele>9.578</ele>
        <time>2019-07-06T18:04:20Z</time>
      </trkpt>
      <trkpt lat="42.109503" lon="-8.830444">
        <ele>8.380</ele>
        <time>2019-07-06T18:05:00Z</time>
      </trkpt>
      <trkpt lat="42.109678" lon="-8.829752">
        <ele>5.951</ele>
        <time>2019-07-06T18:05:40Z</time>
      </trkpt>
      <trkpt lat="42.109655" lon="-8.829478">
        <ele>5.835</ele>
        <time>2019-07-06T18:06:20Z</time>
      </trkpt>
      <trkpt lat="42.109535" lon="-8.829044">
        <ele>7.469</ele>
        <time>2019-07-06T18:07:00Z</time>
      </trkpt>
      <trkpt lat="42.109408" lon="-8.828775">
        <ele>7.704</ele>
        <time>2019-07-06T18:07:40Z</time>
      </trkpt>
      <trkpt lat="42.109312" lon="-8.828437">
        <ele>6.224</ele>
        <time>2019-07-06T18:08:20Z</time>
      </trkpt>
      <trkpt lat="42.109360" lon="-8.827788">
        <ele>4.307</ele>
        <time>2019-07-06T18:09:00Z</time>
      </trkpt>
      <trkpt lat="42.109483" lon="-8.827499">
        <ele>4.188</ele>
        <time>2019-07-06T18:09:40Z</time>
      </trkpt>
      <trkpt lat="42.109519" lon="-8.827026">
        <ele>4.012</ele>
        <time>2019-07-06T18:10:20Z</time>
      </trkpt>
      <trkpt lat="42.109547" lon="-8.826705">
        <ele>4.097</ele>
        <time>2019-07-06T18:11:00Z</time>
      </trkpt>
      <trkpt lat="42.109535" lon="-8.826404">
        <ele>4.063</ele>
        <time>2019-07-06T18:11:40Z</time>
      </trkpt>
      <trkpt lat="42.109555" lon="-8.825932">
        <ele>3.615</ele>
        <time>2019-07-06T18:12:20Z</time>
      </trkpt>
      <trkpt lat="42.109619" lon="-8.825541">
        <ele>4.126</ele>
        <time>2019-07-06T18:13:00Z</time>
      </trkpt>
      <trkpt lat="42.109718" lon="-8.825133">
        <ele>5.020</ele>
        <time>2019-07-06T18:13:40Z</time>
      </trkpt>
      <trkpt lat="42.109881" lon="-8.824736">
        <ele>5.037</ele>
        <time>2019-07-06T18:14:20Z</time>
      </trkpt>
      <trkpt lat="42.109893" lon="-8.824382">
        <ele>5.049</ele>
        <time>2019-07-06T18:15:00Z</time>
      </trkpt>
      <trkpt lat="42.110025" lon="-8.823872">
        <ele>4.913</ele>
        <time>2019-07-06T18:15:40Z</time>
      </trkpt>
      <trkpt lat="42.110033" lon="-8.822853">
        <ele>4.007</ele>
        <time>2019-07-06T18:16:20Z</time>
      </trkpt>
      <trkpt lat="42.110164" lon="-8.821748">
        <ele>3.825</ele>
        <time>2019-07-06T18:17:00Z</time>
      </trkpt>
      <trkpt lat="42.110283" lon="-8.821072">
        <ele>5.079</ele>
        <time>2019-07-06T18:17:40Z</time>
      </trkpt>
      <trkpt lat="42.110427" lon="-8.820246">
        <ele>5.154</ele>
        <time>2019-07-06T18:18:20Z</time>
      </trkpt>
      <trkpt lat="42.110255" lon="-8.820122">
        <ele>5.580</ele>
        <time>2019-07-06T18:19:00Z</time>
      </trkpt>
      <trkpt lat="42.110263" lon="-8.819473">
        <ele>6.012</ele>
        <time>2019-07-06T18:19:40Z</time>
      </trkpt>
      <trkpt lat="42.110208" lon="-8.819028">
        <ele>7.513</ele>
        <time>2019-07-06T18:20:20Z</time>
      </trkpt>
      <trkpt lat="42.110088" lon="-8.818502">
        <ele>9.767</ele>
        <time>2019-07-06T18:21:00Z</time>
      </trkpt>
      <trkpt lat="42.109961" lon="-8.818052">
        <ele>11.034</ele>
        <time>2019-07-06T18:21:40Z</time>
      </trkpt>
      <trkpt lat="42.109889" lon="-8.817639">
        <ele>11.955</ele>
        <time>2019-07-06T18:22:20Z</time>
      </trkpt>
      <trkpt lat="42.109869" lon="-8.817000">
        <ele>17.410</ele>
        <time>2019-07-06T18:23:00Z</time>
      </trkpt>
      <trkpt lat="42.109786" lon="-8.816721">
        <ele>19.807</ele>
        <time>2019-07-06T18:23:40Z</time>
      </trkpt>
      <trkpt lat="42.109579" lon="-8.816593">
        <ele>20.765</ele>
        <time>2019-07-06T18:24:20Z</time>
      </trkpt>
      <trkpt lat="42.109308" lon="-8.816464">
        <ele>21.929</ele>
        <time>2019-07-06T18:25:00Z</time>
      </trkpt>
      <trkpt lat="42.108827" lon="-8.816088">
        <ele>28.464</ele>
        <time>2019-07-06T18:25:40Z</time>
      </trkpt>
      <trkpt lat="42.108512" lon="-8.815890">
        <ele>30.260</ele>
        <time>2019-07-06T18:26:20Z</time>
      </trkpt>
      <trkpt lat="42.108309" lon="-8.815595">
        <ele>31.752</ele>
        <time>2019-07-06T18:27:00Z</time>
      </trkpt>
      <trkpt lat="42.108504" lon="-8.815289">
        <ele>35.273</ele>
        <time>2019-07-06T18:27:40Z</time>
      </trkpt>
      <trkpt lat="42.108600" lon="-8.814849">
        <ele>39.647</ele>
        <time>2019-07-06T18:28:20Z</time>
      </trkpt>
      <trkpt lat="42.108668" lon="-8.814672">
        <ele>39.421</ele>
        <time>2019-07-06T18:29:00Z</time>
      </trkpt>
      <trkpt lat="42.108934" lon="-8.814608">
        <ele>37.841</ele>
        <time>2019-07-06T18:29:40Z</time>
      </trkpt>
      <trkpt lat="42.109038" lon="-8.814484">
        <ele>37.505</ele>
        <time>2019-07-06T18:30:20Z</time>
      </trkpt>
      <trkpt lat="42.109495" lon="-8.814474">
        <ele>36.907</ele>
        <time>2019-07-06T18:31:00Z</time>
      </trkpt>
      <trkpt lat="42.109710" lon="-8.814366">
        <ele>37.094</ele>
        <time>2019-07-06T18:31:40Z</time>
      </trkpt>
      <trkpt lat="42.109830" lon="-8.814023">
        <ele>37.028</ele>
        <time>2019-07-06T18:32:20Z</time>
      </trkpt>
      <trkpt lat="42.109865" lon="-8.813653">
        <ele>36.613</ele>
        <time>2019-07-06T18:33:00Z</time>
      </trkpt>
      <trkpt lat="42.110236" lon="-8.813519">
        <ele>35.789</ele>
        <time>2019-07-06T18:33:40Z</time>
      </trkpt>
      <trkpt lat="42.110773" lon="-8.813487">
        <ele>33.331</ele>
        <time>2019-07-06T18:34:20Z</time>
      </trkpt>
      <trkpt lat="42.111087" lon="-8.813481">
        <ele>30.352</ele>
        <time>2019-07-06T18:35:00Z</time>
      </trkpt>
      <trkpt lat="42.111632" lon="-8.813481">
        <ele>28.256</ele>
        <time>2019-07-06T18:35:40Z</time>
      </trkpt>
      <trkpt lat="42.111671" lon="-8.813385">
        <ele>27.477</ele>
        <time>2019-07-06T18:36:20Z</time>
      </trkpt>
      <trkpt lat="42.111915" lon="-8.813315">
        <ele>26.061</ele>
        <time>2019-07-06T18:37:00Z</time>
      </trkpt>
      <trkpt lat="42.112138" lon="-8.813041">
        <ele>24.427</ele>
        <time>2019-07-06T18:37:40Z</time>
      </trkpt>
      <trkpt lat="42.112448" lon="-8.812741">
        <ele>26.307</ele>
        <time>2019-07-06T18:38:20Z</time>
      </trkpt>
      <trkpt lat="42.112584" lon="-8.812564">
        <ele>27.169</ele>
        <time>2019-07-06T18:39:00Z</time>
      </trkpt>
      <trkpt lat="42.112870" lon="-8.812510">
        <ele>25.353</ele>
        <time>2019-07-06T18:39:40Z</time>
      </trkpt>
      <trkpt lat="42.113113" lon="-8.812484">
        <ele>23.338</ele>
        <time>2019-07-06T18:40:20Z</time>
      </trkpt>
      <trkpt lat="42.113487" lon="-8.812339">
        <ele>17.474</ele>
        <time>2019-07-06T18:41:00Z</time>
      </trkpt>
      <trkpt lat="42.113682" lon="-8.812435">
        <ele>15.386</ele>
        <time>2019-07-06T18:41:40Z</time>
      </trkpt>
      <trkpt lat="42.113913" lon="-8.812478">
        <ele>11.397</ele>
        <time>2019-07-06T18:42:20Z</time>
      </trkpt>
      <trkpt lat="42.114327" lon="-8.812312">
        <ele>4.661</ele>
        <time>2019-07-06T18:43:00Z</time>
      </trkpt>
      <trkpt lat="42.115043" lon="-8.812805">
        <ele>2.825</ele>
        <time>2019-07-06T18:43:40Z</time>
      </trkpt>
      <trkpt lat="42.115524" lon="-8.812596">
        <ele>1.326</ele>
        <time>2019-07-06T18:44:20Z</time>
      </trkpt>
      <trkpt lat="42.115926" lon="-8.812425">
        <ele>4.608</ele>
        <time>2019-07-06T18:45:00Z</time>
      </trkpt>
      <trkpt lat="42.116276" lon="-8.812323">
        <ele>5.307</ele>
        <time>2019-07-06T18:45:40Z</time>
      </trkpt>
      <trkpt lat="42.116256" lon="-8.812237">
        <ele>5.534</ele>
        <time>2019-07-06T18:46:20Z</time>
      </trkpt>
      <trkpt lat="42.116638" lon="-8.811915">
        <ele>5.858</ele>
        <time>2019-07-06T18:47:00Z</time>
      </trkpt>
      <trkpt lat="42.116812" lon="-8.811770">
        <ele>6.143</ele>
        <time>2019-07-06T18:47:40Z</time>
      </trkpt>
      <trkpt lat="42.117649" lon="-8.811051">
        <ele>9.879</ele>
        <time>2019-07-06T18:48:20Z</time>
      </trkpt>
      <trkpt lat="42.118449" lon="-8.810359">
        <ele>16.941</ele>
        <time>2019-07-06T18:49:00Z</time>
      </trkpt>
      <trkpt lat="42.118798" lon="-8.810123">
        <ele>19.157</ele>
        <time>2019-07-06T17:16:25Z</time>
      </trkpt>
      <trkpt lat="42.11836" lon="-8.810402">
        <ele>14.000</ele>
        <time>2019-07-06T17:17:05Z</time>
      </trkpt>
      <trkpt lat="42.118292" lon="-8.809968">
        <ele>16.020</ele>
        <time>2019-07-06T17:17:45Z</time>
      </trkpt>
      <trkpt lat="42.118447" lon="-8.808932">
        <ele>21.007</ele>
        <time>2019-07-06T17:18:25Z</time>
      </trkpt>
      <trkpt lat="42.120536" lon="-8.807661">
        <ele>32.181</ele>
        <time>2019-07-06T17:19:05Z</time>
      </trkpt>
      <trkpt lat="42.12066" lon="-8.806905">
        <ele>35.156</ele>
        <time>2019-07-06T17:19:45Z</time>
      </trkpt>
      <trkpt lat="42.121288" lon="-8.805821">
        <ele>32.168</ele>
        <time>2019-07-06T17:20:25Z</time>
      </trkpt>
      <trkpt lat="42.121973" lon="-8.805344">
        <ele>36.027</ele>
        <time>2019-07-06T17:21:05Z</time>
      </trkpt>
      <trkpt lat="42.122574" lon="-8.805242">
        <ele>43.044</ele>
        <time>2019-07-06T17:21:45Z</time>
      </trkpt>
      <trkpt lat="42.123159" lon="-8.804625">
        <ele>46.030</ele>
        <time>2019-07-06T17:22:25Z</time>
      </trkpt>
      <trkpt lat="42.123469" lon="-8.802613">
        <ele>43.197</ele>
        <time>2019-07-06T17:23:05Z</time>
      </trkpt>
      <trkpt lat="42.123867" lon="-8.803466">
        <ele>45.029</ele>
        <time>2019-07-06T17:23:45Z</time>
      </trkpt>
      <trkpt lat="42.124448" lon="-8.804147">
        <ele>47.000</ele>
        <time>2019-07-06T17:24:25Z</time>
      </trkpt>
      <trkpt lat="42.126075" lon="-8.804405">
        <ele>40.020</ele>
        <time>2019-07-06T17:25:05Z</time>
      </trkpt>
      <trkpt lat="42.126361" lon="-8.805376">
        <ele>41.007</ele>
        <time>2019-07-06T17:25:45Z</time>
      </trkpt>
      <trkpt lat="42.126278" lon="-8.805799">
        <ele>42.048</ele>
        <time>2019-07-06T17:26:25Z</time>
      </trkpt>
      <trkpt lat="42.126441" lon="-8.805858">
        <ele>42.033</ele>
        <time>2019-07-06T17:27:05Z</time>
      </trkpt>
      <trkpt lat="42.128044" lon="-8.804914">
        <ele>35.155</ele>
        <time>2019-07-06T17:27:45Z</time>
      </trkpt>
      <trkpt lat="42.129373" lon="-8.80478">
        <ele>26.194</ele>
        <time>2019-07-06T17:28:25Z</time>
      </trkpt>
      <trkpt lat="42.129457" lon="-8.804625">
        <ele>26.011</ele>
        <time>2019-07-06T17:29:05Z</time>
      </trkpt>
      <trkpt lat="42.130185" lon="-8.804555">
        <ele>24.177</ele>
        <time>2019-07-06T17:29:45Z</time>
      </trkpt>
      <trkpt lat="42.130459" lon="-8.80433">
        <ele>21.154</ele>
        <time>2019-07-06T17:30:25Z</time>
      </trkpt>
      <trkpt lat="42.130567" lon="-8.804018">
        <ele>24.171</ele>
        <time>2019-07-06T17:31:05Z</time>
      </trkpt>
      <trkpt lat="42.130467" lon="-8.802951">
        <ele>22.041</ele>
        <time>2019-07-06T17:31:45Z</time>
      </trkpt>
      <trkpt lat="42.130551" lon="-8.802431">
        <ele>16.015</ele>
        <time>2019-07-06T17:32:25Z</time>
      </trkpt>
      <trkpt lat="42.130686" lon="-8.802329">
        <ele>13.007</ele>
        <time>2019-07-06T17:33:05Z</time>
      </trkpt>
      <trkpt lat="42.131239" lon="-8.803659">
        <ele>13.193</ele>
        <time>2019-07-06T17:33:45Z</time>
      </trkpt>
      <trkpt lat="42.131382" lon="-8.80382">
        <ele>9.168</ele>
        <time>2019-07-06T17:34:25Z</time>
      </trkpt>
      <trkpt lat="42.131665" lon="-8.803707">
        <ele>7.020</ele>
        <time>2019-07-06T17:35:05Z</time>
      </trkpt>
      <trkpt lat="42.132126" lon="-8.804399">
        <ele>6.179</ele>
        <time>2019-07-06T17:35:45Z</time>
      </trkpt>
      <trkpt lat="42.132059" lon="-8.804099">
        <ele>6.016</ele>
        <time>2019-07-06T17:36:25Z</time>
      </trkpt>
      <trkpt lat="42.132425" lon="-8.803804">
        <ele>6.162</ele>
        <time>2019-07-06T17:37:05Z</time>
      </trkpt>
      <trkpt lat="42.132592" lon="-8.804051">
        <ele>5.049</ele>
        <time>2019-07-06T17:37:45Z</time>
      </trkpt>
      <trkpt lat="42.132413" lon="-8.803198">
        <ele>7.018</ele>
        <time>2019-07-06T17:38:25Z</time>
      </trkpt>
      <trkpt lat="42.133101" lon="-8.802393">
        <ele>11.198</ele>
        <time>2019-07-06T17:39:05Z</time>
      </trkpt>
      <trkpt lat="42.133686" lon="-8.801771">
        <ele>20.017</ele>
        <time>2019-07-06T17:39:45Z</time>
      </trkpt>
      <trkpt lat="42.134171" lon="-8.801647">
        <ele>29.007</ele>
        <time>2019-07-06T17:40:25Z</time>
      </trkpt>
      <trkpt lat="42.13439" lon="-8.801438">
        <ele>32.197</ele>
        <time>2019-07-06T17:41:05Z</time>
      </trkpt>
      <trkpt lat="42.134434" lon="-8.800955">
        <ele>31.182</ele>
        <time>2019-07-06T17:41:45Z</time>
      </trkpt>
      <trkpt lat="42.134867" lon="-8.800585">
        <ele>33.184</ele>
        <time>2019-07-06T17:42:25Z</time>
      </trkpt>
      <trkpt lat="42.135842" lon="-8.800108">
        <ele>32.153</ele>
        <time>2019-07-06T17:43:05Z</time>
      </trkpt>
      <trkpt lat="42.13616" lon="-8.799791">
        <ele>32.040</ele>
        <time>2019-07-06T17:43:45Z</time>
      </trkpt>
      <trkpt lat="42.136546" lon="-8.798922">
        <ele>30.036</ele>
        <time>2019-07-06T17:44:25Z</time>
      </trkpt>
      <trkpt lat="42.138157" lon="-8.797629">
        <ele>24.023</ele>
        <time>2019-07-06T17:45:05Z</time>
      </trkpt>
      <trkpt lat="42.138952" lon="-8.797517">
        <ele>21.178</ele>
        <time>2019-07-06T17:45:45Z</time>
      </trkpt>
      <trkpt lat="42.13968" lon="-8.79779">
        <ele>29.033</ele>
        <time>2019-07-06T17:46:25Z</time>
      </trkpt>
      <trkpt lat="42.140126" lon="-8.798102">
        <ele>31.026</ele>
        <time>2019-07-06T17:47:05Z</time>
      </trkpt>
      <trkpt lat="42.140257" lon="-8.79845">
        <ele>33.007</ele>
        <time>2019-07-06T17:47:45Z</time>
      </trkpt>
      <trkpt lat="42.141017" lon="-8.798171">
        <ele>36.043</ele>
        <time>2019-07-06T17:48:25Z</time>
      </trkpt>
      <trkpt lat="42.141303" lon="-8.797753">
        <ele>37.028</ele>
        <time>2019-07-06T17:49:05Z</time>
      </trkpt>
      <trkpt lat="42.141657" lon="-8.797554">
        <ele>37.160</ele>
        <time>2019-07-06T17:49:45Z</time>
      </trkpt>
      <trkpt lat="42.141653" lon="-8.796251">
        <ele>37.199</ele>
        <time>2019-07-06T17:50:25Z</time>
      </trkpt>
      <trkpt lat="42.142505" lon="-8.796068">
        <ele>40.186</ele>
        <time>2019-07-06T17:51:05Z</time>
      </trkpt>
      <trkpt lat="42.142584" lon="-8.795607">
        <ele>39.032</ele>
        <time>2019-07-06T17:51:45Z</time>
      </trkpt>
      <trkpt lat="42.146096" lon="-8.794523">
        <ele>40.019</ele>
        <time>2019-07-06T17:52:25Z</time>
      </trkpt>
      <trkpt lat="42.147982" lon="-8.794958">
        <ele>51.156</ele>
        <time>2019-07-06T17:53:05Z</time>
      </trkpt>
      <trkpt lat="42.148399" lon="-8.794717">
        <ele>56.159</ele>
        <time>2019-07-06T17:53:45Z</time>
      </trkpt>
      <trkpt lat="42.148371" lon="-8.794309">
        <ele>57.014</ele>
        <time>2019-07-06T17:54:25Z</time>
      </trkpt>
      <trkpt lat="42.149362" lon="-8.79535">
        <ele>68.007</ele>
        <time>2019-07-06T17:55:05Z</time>
      </trkpt>
      <trkpt lat="42.149696" lon="-8.795494">
        <ele>73.181</ele>
        <time>2019-07-06T17:55:45Z</time>
      </trkpt>
      <trkpt lat="42.149755" lon="-8.795757">
        <ele>72.196</ele>
        <time>2019-07-06T17:56:25Z</time>
      </trkpt>
      <trkpt lat="42.149628" lon="-8.796262">
        <ele>70.048</ele>
        <time>2019-07-06T17:57:05Z</time>
      </trkpt>
      <trkpt lat="42.149827" lon="-8.797442">
        <ele>73.167</ele>
        <time>2019-07-06T17:57:45Z</time>
      </trkpt>
      <trkpt lat="42.149507" lon="-8.79767">
        <ele>68.024</ele>
        <time>2019-07-06T17:58:25Z</time>
      </trkpt>
      <trkpt lat="42.149242" lon="-8.798608">
        <ele>66.010</ele>
        <time>2019-07-06T17:59:05Z</time>
      </trkpt>
      <trkpt lat="42.149793" lon="-8.798751">
        <ele>76.047</ele>
        <time>2019-07-06T17:59:45Z</time>
      </trkpt>
      <trkpt lat="42.149994" lon="-8.79867">
        <ele>81.174</ele>
        <time>2019-07-06T18:00:25Z</time>
      </trkpt>
      <trkpt lat="42.150579" lon="-8.799958">
        <ele>92.156</ele>
        <time>2019-07-06T18:01:05Z</time>
      </trkpt>
      <trkpt lat="42.150793" lon="-8.800108">
        <ele>97.021</ele>
        <time>2019-07-06T18:01:45Z</time>
      </trkpt>
      <trkpt lat="42.151112" lon="-8.800151">
        <ele>100.007</ele>
        <time>2019-07-06T18:02:25Z</time>
      </trkpt>
      <trkpt lat="42.151406" lon="-8.799968">
        <ele>108.013</ele>
        <time>2019-07-06T18:03:05Z</time>
      </trkpt>
      <trkpt lat="42.152718" lon="-8.801154">
        <ele>118.198</ele>
        <time>2019-07-06T18:03:45Z</time>
      </trkpt>
      <trkpt lat="42.153199" lon="-8.801261">
        <ele>124.030</ele>
        <time>2019-07-06T18:04:25Z</time>
      </trkpt>
      <trkpt lat="42.153796" lon="-8.801706">
        <ele>127.199</ele>
        <time>2019-07-06T18:05:05Z</time>
      </trkpt>
      <trkpt lat="42.155061" lon="-8.802001">
        <ele>126.046</ele>
        <time>2019-07-06T18:05:45Z</time>
      </trkpt>
      <trkpt lat="42.15615" lon="-8.801218">
        <ele>137.042</ele>
        <time>2019-07-06T18:06:25Z</time>
      </trkpt>
      <trkpt lat="42.156787" lon="-8.801047">
        <ele>140.049</ele>
        <time>2019-07-06T18:07:05Z</time>
      </trkpt>
      <trkpt lat="42.157526" lon="-8.801047">
        <ele>146.037</ele>
        <time>2019-07-06T18:07:45Z</time>
      </trkpt>
      <trkpt lat="42.157809" lon="-8.801583">
        <ele>141.049</ele>
        <time>2019-07-06T18:08:25Z</time>
      </trkpt>
      <trkpt lat="42.158966" lon="-8.801653">
        <ele>133.013</ele>
        <time>2019-07-06T18:09:05Z</time>
      </trkpt>
      <trkpt lat="42.15961" lon="-8.800457">
        <ele>126.007</ele>
        <time>2019-07-06T18:09:45Z</time>
      </trkpt>
      <trkpt lat="42.160413" lon="-8.800011">
        <ele>133.159</ele>
        <time>2019-07-06T18:10:25Z</time>
      </trkpt>
      <trkpt lat="42.160767" lon="-8.800017">
        <ele>139.154</ele>
        <time>2019-07-06T18:11:05Z</time>
      </trkpt>
      <trkpt lat="42.16163" lon="-8.800403">
        <ele>138.176</ele>
        <time>2019-07-06T18:11:45Z</time>
      </trkpt>
      <trkpt lat="42.162946" lon="-8.800553">
        <ele>132.195</ele>
        <time>2019-07-06T18:12:25Z</time>
      </trkpt>
      <trkpt lat="42.163451" lon="-8.800827">
        <ele>129.012</ele>
        <time>2019-07-06T18:13:05Z</time>
      </trkpt>
      <trkpt lat="42.163797" lon="-8.800843">
        <ele>130.188</ele>
        <time>2019-07-06T18:13:45Z</time>
      </trkpt>
      <trkpt lat="42.16429" lon="-8.800693">
        <ele>133.035</ele>
        <time>2019-07-06T18:14:25Z</time>
      </trkpt>
      <trkpt lat="42.164811" lon="-8.800204">
        <ele>134.019</ele>
        <time>2019-07-06T18:15:05Z</time>
      </trkpt>
      <trkpt lat="42.165936" lon="-8.801283">
        <ele>119.009</ele>
        <time>2019-07-06T18:15:45Z</time>
      </trkpt>
      <trkpt lat="42.166433" lon="-8.801299">
        <ele>120.019</ele>
        <time>2019-07-06T18:16:25Z</time>
      </trkpt>
      <trkpt lat="42.166751" lon="-8.801186">
        <ele>121.007</ele>
        <time>2019-07-06T18:17:05Z</time>
      </trkpt>
      <trkpt lat="42.167225" lon="-8.80022">
        <ele>127.027</ele>
        <time>2019-07-06T18:17:45Z</time>
      </trkpt>
      <trkpt lat="42.167861" lon="-8.799765">
        <ele>134.152</ele>
        <time>2019-07-06T18:18:25Z</time>
      </trkpt>
      <trkpt lat="42.168254" lon="-8.799786">
        <ele>136.194</ele>
        <time>2019-07-06T18:19:05Z</time>
      </trkpt>
      <trkpt lat="42.168139" lon="-8.799196">
        <ele>145.193</ele>
        <time>2019-07-06T18:19:45Z</time>
      </trkpt>
      <trkpt lat="42.168898" lon="-8.798777">
        <ele>153.170</ele>
        <time>2019-07-06T18:20:25Z</time>
      </trkpt>
      <trkpt lat="42.170159" lon="-8.79838">
        <ele>158.176</ele>
        <time>2019-07-06T18:21:05Z</time>
      </trkpt>
      <trkpt lat="42.170346" lon="-8.79844">
        <ele>158.043</ele>
        <time>2019-07-06T18:21:45Z</time>
      </trkpt>
      <trkpt lat="42.170572" lon="-8.798257">
        <ele>156.035</ele>
        <time>2019-07-06T18:22:25Z</time>
      </trkpt>
      <trkpt lat="42.171189" lon="-8.797528">
        <ele>165.186</ele>
        <time>2019-07-06T18:23:05Z</time>
      </trkpt>
      <trkpt lat="42.17132" lon="-8.797168">
        <ele>163.014</ele>
        <time>2019-07-06T18:23:45Z</time>
      </trkpt>
      <trkpt lat="42.171236" lon="-8.796895">
        <ele>170.007</ele>
        <time>2019-07-06T18:24:25Z</time>
      </trkpt>
      <trkpt lat="42.171435" lon="-8.796626">
        <ele>168.179</ele>
        <time>2019-07-06T18:25:05Z</time>
      </trkpt>
      <trkpt lat="42.172441" lon="-8.796648">
        <ele>154.164</ele>
        <time>2019-07-06T18:25:45Z</time>
      </trkpt>
      <trkpt lat="42.172958" lon="-8.797334">
        <ele>143.186</ele>
        <time>2019-07-06T18:26:25Z</time>
      </trkpt>
      <trkpt lat="42.173781" lon="-8.798026">
        <ele>129.025</ele>
        <time>2019-07-06T18:27:05Z</time>
      </trkpt>
      <trkpt lat="42.174631" lon="-8.798482">
        <ele>119.152</ele>
        <time>2019-07-06T18:27:45Z</time>
      </trkpt>
      <trkpt lat="42.17553" lon="-8.79852">
        <ele>119.048</ele>
        <time>2019-07-06T18:28:25Z</time>
      </trkpt>
      <trkpt lat="42.176933" lon="-8.798268">
        <ele>116.045</ele>
        <time>2019-07-06T18:29:05Z</time>
      </trkpt>
      <trkpt lat="42.177299" lon="-8.797726">
        <ele>116.017</ele>
        <time>2019-07-06T18:29:45Z</time>
      </trkpt>
      <trkpt lat="42.177315" lon="-8.796326">
        <ele>126.187</ele>
        <time>2019-07-06T18:30:25Z</time>
      </trkpt>
      <trkpt lat="42.177669" lon="-8.795328">
        <ele>119.015</ele>
        <time>2019-07-06T18:31:05Z</time>
      </trkpt>
      <trkpt lat="42.177971" lon="-8.794856">
        <ele>120.007</ele>
        <time>2019-07-06T18:31:45Z</time>
      </trkpt>
      <trkpt lat="42.178464" lon="-8.794577">
        <ele>118.197</ele>
        <time>2019-07-06T18:32:25Z</time>
      </trkpt>
      <trkpt lat="42.179195" lon="-8.794427">
        <ele>101.182</ele>
        <time>2019-07-06T18:33:05Z</time>
      </trkpt>
      <trkpt lat="42.179736" lon="-8.792861">
        <ele>92.184</ele>
        <time>2019-07-06T18:33:45Z</time>
      </trkpt>
      <trkpt lat="42.18034" lon="-8.791831">
        <ele>92.193</ele>
        <time>2019-07-06T18:34:25Z</time>
      </trkpt>
      <trkpt lat="42.180181" lon="-8.790994">
        <ele>103.050</ele>
        <time>2019-07-06T18:35:05Z</time>
      </trkpt>
      <trkpt lat="42.179815" lon="-8.790243">
        <ele>122.166</ele>
        <time>2019-07-06T18:35:45Z</time>
      </trkpt>
      <trkpt lat="42.180436" lon="-8.789964">
        <ele>108.043</ele>
        <time>2019-07-06T18:36:25Z</time>
      </trkpt>
      <trkpt lat="42.181485" lon="-8.789985">
        <ele>89.022</ele>
        <time>2019-07-06T18:37:05Z</time>
      </trkpt>
      <trkpt lat="42.181835" lon="-8.788311">
        <ele>78.162</ele>
        <time>2019-07-06T18:37:45Z</time>
      </trkpt>
      <trkpt lat="42.182145" lon="-8.788">
        <ele>72.008</ele>
        <time>2019-07-06T18:38:25Z</time>
      </trkpt>
      <trkpt lat="42.18348" lon="-8.787271">
        <ele>69.007</ele>
        <time>2019-07-06T18:39:05Z</time>
      </trkpt>
      <trkpt lat="42.185015" lon="-8.785908">
        <ele>63.018</ele>
        <time>2019-07-06T18:39:45Z</time>
      </trkpt>
      <trkpt lat="42.185301" lon="-8.785501">
        <ele>63.193</ele>
        <time>2019-07-06T18:40:25Z</time>
      </trkpt>
      <trkpt lat="42.185524" lon="-8.784589">
        <ele>66.185</ele>
        <time>2019-07-06T18:41:05Z</time>
      </trkpt>
      <trkpt lat="42.18542" lon="-8.783323">
        <ele>74.164</ele>
        <time>2019-07-06T18:41:45Z</time>
      </trkpt>
      <trkpt lat="42.185706" lon="-8.782915">
        <ele>65.011</ele>
        <time>2019-07-06T18:42:25Z</time>
      </trkpt>
      <trkpt lat="42.18554" lon="-8.782207">
        <ele>75.037</ele>
        <time>2019-07-06T18:43:05Z</time>
      </trkpt>
      <trkpt lat="42.185635" lon="-8.781177">
        <ele>63.154</ele>
        <time>2019-07-06T18:43:45Z</time>
      </trkpt>
      <trkpt lat="42.185222" lon="-8.779804">
        <ele>63.199</ele>
        <time>2019-07-06T18:44:25Z</time>
      </trkpt>
      <trkpt lat="42.185547" lon="-8.779353">
        <ele>51.007</ele>
        <time>2019-07-06T18:45:05Z</time>
      </trkpt>
      <trkpt lat="42.186557" lon="-8.778495">
        <ele>39.027</ele>
        <time>2019-07-06T18:45:45Z</time>
      </trkpt>
      <trkpt lat="42.187527" lon="-8.776939">
        <ele>41.007</ele>
        <time>2019-07-06T18:46:25Z</time>
      </trkpt>
      <trkpt lat="42.188163" lon="-8.776596">
        <ele>40.175</ele>
        <time>2019-07-06T18:47:05Z</time>
      </trkpt>
      <trkpt lat="42.189049" lon="-8.776467">
        <ele>38.010</ele>
        <time>2019-07-06T18:47:45Z</time>
      </trkpt>
      <trkpt lat="42.189057" lon="-8.776354">
        <ele>38.182</ele>
        <time>2019-07-06T18:48:25Z</time>
      </trkpt>
      <trkpt lat="42.19106" lon="-8.775764">
        <ele>33.171</ele>
        <time>2019-07-06T18:49:05Z</time>
      </trkpt>
      <trkpt lat="42.192551" lon="-8.774144">
        <ele>26.158</ele>
        <time>2019-07-06T18:49:45Z</time>
      </trkpt>
      <trkpt lat="42.193195" lon="-8.772755">
        <ele>23.024</ele>
        <time>2019-07-06T18:50:25Z</time>
      </trkpt>
      <trkpt lat="42.193803" lon="-8.771907">
        <ele>22.161</ele>
        <time>2019-07-06T18:51:05Z</time>
      </trkpt>
      <trkpt lat="42.194347" lon="-8.770636">
        <ele>22.012</ele>
        <time>2019-07-06T18:51:45Z</time>
      </trkpt>
      <trkpt lat="42.194963" lon="-8.76835">
        <ele>25.032</ele>
        <time>2019-07-06T18:52:25Z</time>
      </trkpt>
      <trkpt lat="42.195714" lon="-8.766956">
        <ele>19.005</ele>
        <time>2019-07-06T18:53:05Z</time>
      </trkpt>
      <trkpt lat="42.195361" lon="-8.765824">
        <ele>15.007</ele>
        <time>2019-07-06T18:53:45Z</time>
      </trkpt>
      <trkpt lat="42.195452" lon="-8.765148">
        <ele>12.017</ele>
        <time>2019-07-06T18:54:25Z</time>
      </trkpt>
      <trkpt lat="42.19521" lon="-8.764429">
        <ele>13.192</ele>
        <time>2019-07-06T18:55:05Z</time>
      </trkpt>
      <trkpt lat="42.195476" lon="-8.763544">
        <ele>10.034</ele>
        <time>2019-07-06T18:55:45Z</time>
      </trkpt>
      <trkpt lat="42.19519" lon="-8.762729">
        <ele>8.193</ele>
        <time>2019-07-06T18:56:25Z</time>
      </trkpt>
      <trkpt lat="42.195377" lon="-8.762605">
        <ele>8.040</ele>
        <time>2019-07-06T18:57:05Z</time>
      </trkpt>
      <trkpt lat="42.195245" lon="-8.760728">
        <ele>5.156</ele>
        <time>2019-07-06T18:57:45Z</time>
      </trkpt>
      <trkpt lat="42.195416" lon="-8.759499">
        <ele>8.043</ele>
        <time>2019-07-06T18:58:25Z</time>
      </trkpt>
      <trkpt lat="42.195631" lon="-8.759633">
        <ele>7.043</ele>
        <time>2019-07-06T18:59:05Z</time>
      </trkpt>
      <trkpt lat="42.19614" lon="-8.758754">
        <ele>10.164</ele>
        <time>2019-07-06T18:59:45Z</time>
      </trkpt>
      <trkpt lat="42.196692" lon="-8.756994">
        <ele>14.010</ele>
        <time>2019-07-06T19:00:25Z</time>
      </trkpt>
      <trkpt lat="42.196899" lon="-8.755766">
        <ele>17.007</ele>
        <time>2019-07-06T19:01:05Z</time>
      </trkpt>
      <trkpt lat="42.197396" lon="-8.755857">
        <ele>16.150</ele>
        <time>2019-07-06T19:01:45Z</time>
      </trkpt>
      <trkpt lat="42.197952" lon="-8.754762">
        <ele>20.025</ele>
        <time>2019-07-06T19:02:25Z</time>
      </trkpt>
      <trkpt lat="42.198302" lon="-8.75488">
        <ele>25.177</ele>
        <time>2019-07-06T19:03:05Z</time>
      </trkpt>
      <trkpt lat="42.198524" lon="-8.755363">
        <ele>26.026</ele>
        <time>2019-07-06T19:03:45Z</time>
      </trkpt>
      <trkpt lat="42.198751" lon="-8.75531">
        <ele>26.173</ele>
        <time>2019-07-06T19:04:25Z</time>
      </trkpt>
      <trkpt lat="42.199033" lon="-8.75488">
        <ele>25.189</ele>
        <time>2019-07-06T19:05:05Z</time>
      </trkpt>
      <trkpt lat="42.199212" lon="-8.754864">
        <ele>25.016</ele>
        <time>2019-07-06T19:05:45Z</time>
      </trkpt>
      <trkpt lat="42.200269" lon="-8.752702">
        <ele>28.176</ele>
        <time>2019-07-06T19:06:25Z</time>
      </trkpt>
      <trkpt lat="42.200595" lon="-8.750755">
        <ele>23.190</ele>
        <time>2019-07-06T19:07:05Z</time>
      </trkpt>
      <trkpt lat="42.200392" lon="-8.750267">
        <ele>26.019</ele>
        <time>2019-07-06T19:07:45Z</time>
      </trkpt>
      <trkpt lat="42.199542" lon="-8.749816">
        <ele>28.007</ele>
        <time>2019-07-06T19:08:25Z</time>
      </trkpt>
      <trkpt lat="42.198874" lon="-8.749044">
        <ele>31.033</ele>
        <time>2019-07-06T19:09:05Z</time>
      </trkpt>
      <trkpt lat="42.199029" lon="-8.74825">
        <ele>32.158</ele>
        <time>2019-07-06T19:09:45Z</time>
      </trkpt>
      <trkpt lat="42.198918" lon="-8.748094">
        <ele>34.020</ele>
        <time>2019-07-06T19:10:25Z</time>
      </trkpt>
      <trkpt lat="42.199204" lon="-8.747177">
        <ele>34.189</ele>
        <time>2019-07-06T19:11:05Z</time>
      </trkpt>
      <trkpt lat="42.199073" lon="-8.74552">
        <ele>41.156</ele>
        <time>2019-07-06T19:11:45Z</time>
      </trkpt>
      <trkpt lat="42.198822" lon="-8.744838">
        <ele>46.182</ele>
        <time>2019-07-06T19:12:25Z</time>
      </trkpt>
      <trkpt lat="42.19949" lon="-8.743814">
        <ele>42.169</ele>
        <time>2019-07-06T19:13:05Z</time>
      </trkpt>
      <trkpt lat="42.199363" lon="-8.742296">
        <ele>50.041</ele>
        <time>2019-07-06T19:13:45Z</time>
      </trkpt>
      <trkpt lat="42.199573" lon="-8.741357">
        <ele>57.181</ele>
        <time>2019-07-06T19:14:25Z</time>
      </trkpt>
      <trkpt lat="42.199792" lon="-8.740965">
        <ele>59.009</ele>
        <time>2019-07-06T19:15:05Z</time>
      </trkpt>
      <trkpt lat="42.200003" lon="-8.741035">
        <ele>56.007</ele>
        <time>2019-07-06T19:15:45Z</time>
      </trkpt>
      <trkpt lat="42.200026" lon="-8.740574">
        <ele>59.160</ele>
        <time>2019-07-06T19:16:25Z</time>
      </trkpt>
      <trkpt lat="42.200332" lon="-8.740348">
        <ele>61.185</ele>
        <time>2019-07-06T19:17:05Z</time>
      </trkpt>
      <trkpt lat="42.200642" lon="-8.739114">
        <ele>68.197</ele>
        <time>2019-07-06T19:17:45Z</time>
      </trkpt>
      <trkpt lat="42.20104" lon="-8.738492">
        <ele>63.036</ele>
        <time>2019-07-06T19:18:25Z</time>
      </trkpt>
      <trkpt lat="42.201131" lon="-8.738063">
        <ele>63.023</ele>
        <time>2019-07-06T19:19:05Z</time>
      </trkpt>
      <trkpt lat="42.200996" lon="-8.737156">
        <ele>60.179</ele>
        <time>2019-07-06T19:19:45Z</time>
      </trkpt>
      <trkpt lat="42.20154" lon="-8.736019">
        <ele>54.036</ele>
        <time>2019-07-06T19:20:25Z</time>
      </trkpt>
      <trkpt lat="42.202013" lon="-8.735805">
        <ele>53.025</ele>
        <time>2019-07-06T19:21:05Z</time>
      </trkpt>
      <trkpt lat="42.202121" lon="-8.735365">
        <ele>53.026</ele>
        <time>2019-07-06T19:21:45Z</time>
      </trkpt>
      <trkpt lat="42.202605" lon="-8.734903">
        <ele>50.008</ele>
        <time>2019-07-06T19:22:25Z</time>
      </trkpt>
      <trkpt lat="42.202633" lon="-8.733568">
        <ele>41.007</ele>
        <time>2019-07-06T19:23:05Z</time>
      </trkpt>
      <trkpt lat="42.202804" lon="-8.732876">
        <ele>35.028</ele>
        <time>2019-07-06T19:23:45Z</time>
      </trkpt>
      <trkpt lat="42.203539" lon="-8.732361">
        <ele>22.173</ele>
        <time>2019-07-06T19:24:25Z</time>
      </trkpt>
      <trkpt lat="42.204052" lon="-8.732302">
        <ele>18.175</ele>
        <time>2019-07-06T19:25:05Z</time>
      </trkpt>
      <trkpt lat="42.204549" lon="-8.732666">
        <ele>15.034</ele>
        <time>2019-07-06T19:25:45Z</time>
      </trkpt>
      <trkpt lat="42.205061" lon="-8.732516">
        <ele>14.031</ele>
        <time>2019-07-06T19:26:25Z</time>
      </trkpt>
      <trkpt lat="42.205919" lon="-8.732634">
        <ele>16.157</ele>
        <time>2019-07-06T19:27:05Z</time>
      </trkpt>
      <trkpt lat="42.206619" lon="-8.732371">
        <ele>20.154</ele>
        <time>2019-07-06T19:27:45Z</time>
      </trkpt>
      <trkpt lat="42.206802" lon="-8.732457">
        <ele>20.022</ele>
        <time>2019-07-06T19:28:25Z</time>
      </trkpt>
      <trkpt lat="42.207278" lon="-8.73404">
        <ele>10.162</ele>
        <time>2019-07-06T19:29:05Z</time>
      </trkpt>
      <trkpt lat="42.207382" lon="-8.733975">
        <ele>11.008</ele>
        <time>2019-07-06T19:29:45Z</time>
      </trkpt>
      <trkpt lat="42.20733" lon="-8.734249">
        <ele>10.007</ele>
        <time>2019-07-06T19:30:25Z</time>
      </trkpt>
      <trkpt lat="42.207708" lon="-8.734474">
        <ele>8.158</ele>
        <time>2019-07-06T19:31:05Z</time>
      </trkpt>
      <trkpt lat="42.20791" lon="-8.735102">
        <ele>7.193</ele>
        <time>2019-07-06T19:31:45Z</time>
      </trkpt>
      <trkpt lat="42.211272" lon="-8.736615">
        <ele>9.045</ele>
        <time>2019-07-06T19:32:25Z</time>
      </trkpt>
      <trkpt lat="42.211307" lon="-8.736261">
        <ele>10.174</ele>
        <time>2019-07-06T19:33:05Z</time>
      </trkpt>
      <trkpt lat="42.211466" lon="-8.736293">
        <ele>10.031</ele>
        <time>2019-07-06T19:33:45Z</time>
      </trkpt>
      <trkpt lat="42.211347" lon="-8.737596">
        <ele>9.197</ele>
        <time>2019-07-06T19:34:25Z</time>
      </trkpt>
      <trkpt lat="42.211462" lon="-8.73787">
        <ele>10.164</ele>
        <time>2019-07-06T19:35:05Z</time>
      </trkpt>
      <trkpt lat="42.211729" lon="-8.737934">
        <ele>13.185</ele>
        <time>2019-07-06T19:35:45Z</time>
      </trkpt>
      <trkpt lat="42.211808" lon="-8.737215">
        <ele>11.189</ele>
        <time>2019-07-06T19:36:25Z</time>
      </trkpt>
      <trkpt lat="42.212241" lon="-8.736545">
        <ele>14.017</ele>
        <time>2019-07-06T19:37:05Z</time>
      </trkpt>
      <trkpt lat="42.212082" lon="-8.736207">
        <ele>14.007</ele>
        <time>2019-07-06T19:37:45Z</time>
      </trkpt>
      <trkpt lat="42.212194" lon="-8.734013">
        <ele>17.184</ele>
        <time>2019-07-06T19:38:25Z</time>
      </trkpt>
      <trkpt lat="42.212694" lon="-8.73235">
        <ele>21.169</ele>
        <time>2019-07-06T19:39:05Z</time>
      </trkpt>
      <trkpt lat="42.213513" lon="-8.732103">
        <ele>24.041</ele>
        <time>2019-07-06T19:39:45Z</time>
      </trkpt>
      <trkpt lat="42.213576" lon="-8.731824">
        <ele>24.150</ele>
        <time>2019-07-06T19:40:25Z</time>
      </trkpt>
      <trkpt lat="42.214176" lon="-8.731304">
        <ele>23.157</ele>
        <time>2019-07-06T19:41:05Z</time>
      </trkpt>
      <trkpt lat="42.214057" lon="-8.731036">
        <ele>25.013</ele>
        <time>2019-07-06T19:41:45Z</time>
      </trkpt>
      <trkpt lat="42.214522" lon="-8.729936">
        <ele>27.190</ele>
        <time>2019-07-06T19:42:25Z</time>
      </trkpt>
      <trkpt lat="42.214562" lon="-8.729453">
        <ele>27.043</ele>
        <time>2019-07-06T19:43:05Z</time>
      </trkpt>
      <trkpt lat="42.21538" lon="-8.728536">
        <ele>26.164</ele>
        <time>2019-07-06T19:43:45Z</time>
      </trkpt>
      <trkpt lat="42.21602" lon="-8.72845">
        <ele>22.010</ele>
        <time>2019-07-06T19:44:25Z</time>
      </trkpt>
      <trkpt lat="42.216663" lon="-8.727506">
        <ele>14.007</ele>
        <time>2019-07-06T19:45:05Z</time>
      </trkpt>
      <trkpt lat="42.217335" lon="-8.72506">
        <ele>13.180</ele>
        <time>2019-07-06T19:45:45Z</time>
      </trkpt>
      <trkpt lat="42.217009" lon="-8.724191">
        <ele>11.025</ele>
        <time>2019-07-06T19:46:25Z</time>
      </trkpt>
      <trkpt lat="42.216679" lon="-8.723756">
        <ele>13.047</ele>
        <time>2019-07-06T19:47:05Z</time>
      </trkpt>
      <trkpt lat="42.216949" lon="-8.723295">
        <ele>13.156</ele>
        <time>2019-07-06T19:47:45Z</time>
      </trkpt>
      <trkpt lat="42.217184" lon="-8.723155">
        <ele>13.173</ele>
        <time>2019-07-06T19:48:25Z</time>
      </trkpt>
      <trkpt lat="42.217068" lon="-8.72242">
        <ele>19.049</ele>
        <time>2019-07-06T19:49:05Z</time>
      </trkpt>
      <trkpt lat="42.218022" lon="-8.721455">
        <ele>25.176</ele>
        <time>2019-07-06T19:49:45Z</time>
      </trkpt>
      <trkpt lat="42.219214" lon="-8.720811">
        <ele>23.023</ele>
        <time>2019-07-06T19:50:25Z</time>
      </trkpt>
      <trkpt lat="42.219408" lon="-8.720317">
        <ele>19.183</ele>
        <time>2019-07-06T19:51:05Z</time>
      </trkpt>
      <trkpt lat="42.219424" lon="-8.720092">
        <ele>19.011</ele>
        <time>2019-07-06T19:51:45Z</time>
      </trkpt>
      <trkpt lat="42.219079" lon="-8.719625">
        <ele>21.007</ele>
        <time>2019-07-06T19:52:25Z</time>
      </trkpt>
      <trkpt lat="42.218948" lon="-8.718681">
        <ele>24.158</ele>
        <time>2019-07-06T19:53:05Z</time>
      </trkpt>
      <trkpt lat="42.219003" lon="-8.717281">
        <ele>19.033</ele>
        <time>2019-07-06T19:53:45Z</time>
      </trkpt>
      <trkpt lat="42.218542" lon="-8.716664">
        <ele>16.015</ele>
        <time>2019-07-06T19:54:25Z</time>
      </trkpt>
      <trkpt lat="42.218781" lon="-8.716187">
        <ele>14.044</ele>
        <time>2019-07-06T19:55:05Z</time>
      </trkpt>
      <trkpt lat="42.219103" lon="-8.715865">
        <ele>16.011</ele>
        <time>2019-07-06T19:55:45Z</time>
      </trkpt>
      <trkpt lat="42.220227" lon="-8.716954">
        <ele>21.027</ele>
        <time>2019-07-06T19:56:25Z</time>
      </trkpt>
      <trkpt lat="42.220696" lon="-8.71675">
        <ele>25.014</ele>
        <time>2019-07-06T19:57:05Z</time>
      </trkpt>
      <trkpt lat="42.221323" lon="-8.716718">
        <ele>33.194</ele>
        <time>2019-07-06T19:57:45Z</time>
      </trkpt>
      <trkpt lat="42.222753" lon="-8.716981">
        <ele>45.157</ele>
        <time>2019-07-06T19:58:25Z</time>
      </trkpt>
      <trkpt lat="42.223556" lon="-8.716541">
        <ele>54.022</ele>
        <time>2019-07-06T19:59:05Z</time>
      </trkpt>
      <trkpt lat="42.223488" lon="-8.715838">
        <ele>60.007</ele>
        <time>2019-07-06T19:59:45Z</time>
      </trkpt>
      <trkpt lat="42.224017" lon="-8.714132">
        <ele>51.015</ele>
        <time>2019-07-06T20:00:25Z</time>
      </trkpt>
      <trkpt lat="42.223663" lon="-8.713381">
        <ele>46.010</ele>
        <time>2019-07-06T20:01:05Z</time>
      </trkpt>
      <trkpt lat="42.223965" lon="-8.712909">
        <ele>53.022</ele>
        <time>2019-07-06T20:01:45Z</time>
      </trkpt>
      <trkpt lat="42.224342" lon="-8.713263">
        <ele>54.021</ele>
        <time>2019-07-06T20:02:25Z</time>
      </trkpt>
      <trkpt lat="42.224819" lon="-8.712185">
        <ele>70.168</ele>
        <time>2019-07-06T20:03:05Z</time>
      </trkpt>
      <trkpt lat="42.22495" lon="-8.712405">
        <ele>72.194</ele>
        <time>2019-07-06T20:03:45Z</time>
      </trkpt>
      <trkpt lat="42.225109" lon="-8.712169">
        <ele>73.021</ele>
        <time>2019-07-06T20:04:25Z</time>
      </trkpt>
      <trkpt lat="42.224978" lon="-8.711815">
        <ele>74.158</ele>
        <time>2019-07-06T20:05:05Z</time>
      </trkpt>
      <trkpt lat="42.225137" lon="-8.711273">
        <ele>74.152</ele>
        <time>2019-07-06T20:05:45Z</time>
      </trkpt>
      <trkpt lat="42.225923" lon="-8.711123">
        <ele>83.017</ele>
        <time>2019-07-06T20:06:25Z</time>
      </trkpt>
      <trkpt lat="42.226341" lon="-8.711906">
        <ele>93.007</ele>
        <time>2019-07-06T20:07:05Z</time>
      </trkpt>
      <trkpt lat="42.227199" lon="-8.710994">
        <ele>100.041</ele>
        <time>2019-07-06T20:07:45Z</time>
      </trkpt>
      <trkpt lat="42.228561" lon="-8.710254">
        <ele>113.186</ele>
        <time>2019-07-06T20:08:25Z</time>
      </trkpt>
      <trkpt lat="42.229002" lon="-8.709803">
        <ele>113.178</ele>
        <time>2019-07-06T20:09:05Z</time>
      </trkpt>
      <trkpt lat="42.229077" lon="-8.70953">
        <ele>112.017</ele>
        <time>2019-07-06T20:09:45Z</time>
      </trkpt>
      <trkpt lat="42.230432" lon="-8.708671">
        <ele>97.184</ele>
        <time>2019-07-06T20:10:25Z</time>
      </trkpt>
      <trkpt lat="42.230428" lon="-8.707223">
        <ele>92.010</ele>
        <time>2019-07-06T20:11:05Z</time>
      </trkpt>
      <trkpt lat="42.231044" lon="-8.707218">
        <ele>95.197</ele>
        <time>2019-07-06T20:11:45Z</time>
      </trkpt>
      <trkpt lat="42.230988" lon="-8.700668">
        <ele>116.042</ele>
        <time>2019-07-06T20:12:25Z</time>
      </trkpt>
      <trkpt lat="42.232394" lon="-8.699922">
        <ele>115.022</ele>
        <time>2019-07-06T20:13:05Z</time>
      </trkpt>
      <trkpt lat="42.233232" lon="-8.699911">
        <ele>112.014</ele>
        <time>2019-07-06T20:13:45Z</time>
      </trkpt>
      <trkpt lat="42.233745" lon="-8.698098">
        <ele>122.007</ele>
        <time>2019-07-06T20:14:25Z</time>
      </trkpt>
      <trkpt lat="42.234507" lon="-8.697326">
        <ele>123.160</ele>
        <time>2019-07-06T20:15:05Z</time>
      </trkpt>
      <trkpt lat="42.234706" lon="-8.696601">
        <ele>125.175</ele>
        <time>2019-07-06T20:15:45Z</time>
      </trkpt>
      <trkpt lat="42.234678" lon="-8.696054">
        <ele>127.047</ele>
        <time>2019-07-06T20:16:25Z</time>
      </trkpt>
      <trkpt lat="42.234936" lon="-8.695952">
        <ele>131.016</ele>
        <time>2019-07-06T20:17:05Z</time>
      </trkpt>
      <trkpt lat="42.235" lon="-8.695636">
        <ele>132.023</ele>
        <time>2019-07-06T20:17:45Z</time>
      </trkpt>
      <trkpt lat="42.235159" lon="-8.695759">
        <ele>129.179</ele>
        <time>2019-07-06T20:18:25Z</time>
      </trkpt>
      <trkpt lat="42.236116" lon="-8.695378">
        <ele>125.156</ele>
        <time>2019-07-06T20:19:05Z</time>
      </trkpt>
      <trkpt lat="42.236795" lon="-8.694579">
        <ele>137.166</ele>
        <time>2019-07-06T20:19:45Z</time>
      </trkpt>
      <trkpt lat="42.237518" lon="-8.694177">
        <ele>134.029</ele>
        <time>2019-07-06T20:20:25Z</time>
      </trkpt>
      <trkpt lat="42.238729" lon="-8.693774">
        <ele>130.021</ele>
        <time>2019-07-06T20:21:05Z</time>
      </trkpt>
      <trkpt lat="42.239432" lon="-8.693147">
        <ele>130.007</ele>
        <time>2019-07-06T20:21:45Z</time>
      </trkpt>
      <trkpt lat="42.239646" lon="-8.693082">
        <ele>130.032</ele>
        <time>2019-07-06T20:22:25Z</time>
      </trkpt>
      <trkpt lat="42.240385" lon="-8.69334">
        <ele>127.027</ele>
        <time>2019-07-06T20:23:05Z</time>
      </trkpt>
      <trkpt lat="42.240961" lon="-8.693324">
        <ele>123.049</ele>
        <time>2019-07-06T20:23:45Z</time>
      </trkpt>
      <trkpt lat="42.241279" lon="-8.693157">
        <ele>125.168</ele>
        <time>2019-07-06T20:24:25Z</time>
      </trkpt>
      <trkpt lat="42.242994" lon="-8.691913">
        <ele>143.025</ele>
        <time>2019-07-06T20:25:05Z</time>
      </trkpt>
      <trkpt lat="42.244194" lon="-8.690239">
        <ele>152.041</ele>
        <time>2019-07-06T20:25:45Z</time>
      </trkpt>
      <trkpt lat="42.24631" lon="-8.688979">
        <ele>137.178</ele>
        <time>2019-07-06T20:26:25Z</time>
      </trkpt>
      <trkpt lat="42.246505" lon="-8.688329">
        <ele>140.039</ele>
        <time>2019-07-06T20:27:05Z</time>
      </trkpt>
      <trkpt lat="42.246414" lon="-8.687836">
        <ele>141.001</ele>
        <time>2019-07-06T20:27:45Z</time>
      </trkpt>
      <trkpt lat="42.245492" lon="-8.686956">
        <ele>155.021</ele>
        <time>2019-07-06T20:28:25Z</time>
      </trkpt>
      <trkpt lat="42.245282" lon="-8.686586">
        <ele>161.007</ele>
        <time>2019-07-06T20:29:05Z</time>
      </trkpt>
      <trkpt lat="42.244908" lon="-8.684531">
        <ele>167.159</ele>
        <time>2019-07-06T20:29:45Z</time>
      </trkpt>
      <trkpt lat="42.245826" lon="-8.684075">
        <ele>155.024</ele>
        <time>2019-07-06T20:30:25Z</time>
      </trkpt>
      <trkpt lat="42.246509" lon="-8.683904">
        <ele>150.166</ele>
        <time>2019-07-06T20:31:05Z</time>
      </trkpt>
      <trkpt lat="42.246918" lon="-8.683416">
        <ele>154.045</ele>
        <time>2019-07-06T20:31:45Z</time>
      </trkpt>
      <trkpt lat="42.249467" lon="-8.682123">
        <ele>149.022</ele>
        <time>2019-07-06T20:32:25Z</time>
      </trkpt>
      <trkpt lat="42.250535" lon="-8.681919">
        <ele>137.158</ele>
        <time>2019-07-06T20:33:05Z</time>
      </trkpt>
      <trkpt lat="42.250714" lon="-8.681796">
        <ele>138.195</ele>
        <time>2019-07-06T20:33:45Z</time>
      </trkpt>
      <trkpt lat="42.251083" lon="-8.680798">
        <ele>149.027</ele>
        <time>2019-07-06T20:34:25Z</time>
      </trkpt>
      <trkpt lat="42.252584" lon="-8.679494">
        <ele>150.168</ele>
        <time>2019-07-06T20:35:05Z</time>
      </trkpt>
      <trkpt lat="42.252819" lon="-8.678411">
        <ele>152.014</ele>
        <time>2019-07-06T20:35:45Z</time>
      </trkpt>
      <trkpt lat="42.253061" lon="-8.678094">
        <ele>151.007</ele>
        <time>2019-07-06T20:36:25Z</time>
      </trkpt>
      <trkpt lat="42.253533" lon="-8.676823">
        <ele>169.188</ele>
        <time>2019-07-06T20:37:05Z</time>
      </trkpt>
      <trkpt lat="42.254343" lon="-8.676115">
        <ele>161.153</ele>
        <time>2019-07-06T20:37:45Z</time>
      </trkpt>
      <trkpt lat="42.254836" lon="-8.675321">
        <ele>156.195</ele>
        <time>2019-07-06T20:38:25Z</time>
      </trkpt>
      <trkpt lat="42.255411" lon="-8.673556">
        <ele>150.034</ele>
        <time>2019-07-06T20:39:05Z</time>
      </trkpt>
      <trkpt lat="42.255471" lon="-8.672773">
        <ele>152.181</ele>
        <time>2019-07-06T20:39:45Z</time>
      </trkpt>
      <trkpt lat="42.257909" lon="-8.671619">
        <ele>145.197</ele>
        <time>2019-07-06T20:40:25Z</time>
      </trkpt>
      <trkpt lat="42.258258" lon="-8.671131">
        <ele>145.174</ele>
        <time>2019-07-06T20:41:05Z</time>
      </trkpt>
      <trkpt lat="42.258937" lon="-8.670595">
        <ele>145.045</ele>
        <time>2019-07-06T20:41:45Z</time>
      </trkpt>
      <trkpt lat="42.25991" lon="-8.669034">
        <ele>146.047</ele>
        <time>2019-07-06T20:42:25Z</time>
      </trkpt>
      <trkpt lat="42.260501" lon="-8.668701">
        <ele>148.011</ele>
        <time>2019-07-06T20:43:05Z</time>
      </trkpt>
      <trkpt lat="42.261176" lon="-8.667623">
        <ele>150.007</ele>
        <time>2019-07-06T20:43:45Z</time>
      </trkpt>
      <trkpt lat="42.26143" lon="-8.666872">
        <ele>142.010</ele>
        <time>2019-07-06T20:44:25Z</time>
      </trkpt>
      <trkpt lat="42.260978" lon="-8.665048">
        <ele>153.195</ele>
        <time>2019-07-06T20:45:05Z</time>
      </trkpt>
      <trkpt lat="42.261375" lon="-8.663589">
        <ele>157.037</ele>
        <time>2019-07-06T20:45:45Z</time>
      </trkpt>
      <trkpt lat="42.261661" lon="-8.663406">
        <ele>157.046</ele>
        <time>2019-07-06T20:46:25Z</time>
      </trkpt>
      <trkpt lat="42.262113" lon="-8.663632">
        <ele>146.173</ele>
        <time>2019-07-06T20:47:05Z</time>
      </trkpt>
      <trkpt lat="42.263534" lon="-8.663524">
        <ele>150.049</ele>
        <time>2019-07-06T20:47:45Z</time>
      </trkpt>
      <trkpt lat="42.263959" lon="-8.663777">
        <ele>147.016</ele>
        <time>2019-07-06T20:48:25Z</time>
      </trkpt>
      <trkpt lat="42.264646" lon="-8.663535">
        <ele>151.016</ele>
        <time>2019-07-06T20:49:05Z</time>
      </trkpt>
      <trkpt lat="42.265222" lon="-8.663535">
        <ele>146.176</ele>
        <time>2019-07-06T20:49:45Z</time>
      </trkpt>
      <trkpt lat="42.265742" lon="-8.663025">
        <ele>149.013</ele>
        <time>2019-07-06T20:50:25Z</time>
      </trkpt>
      <trkpt lat="42.266309" lon="-8.662983">
        <ele>142.007</ele>
        <time>2019-07-06T20:51:05Z</time>
      </trkpt>
      <trkpt lat="42.266952" lon="-8.662392">
        <ele>143.017</ele>
        <time>2019-07-06T20:51:45Z</time>
      </trkpt>
      <trkpt lat="42.267171" lon="-8.661947">
        <ele>150.022</ele>
        <time>2019-07-06T20:52:25Z</time>
      </trkpt>
      <trkpt lat="42.268521" lon="-8.661663">
        <ele>138.044</ele>
        <time>2019-07-06T20:53:05Z</time>
      </trkpt>
      <trkpt lat="42.269549" lon="-8.659641">
        <ele>164.163</ele>
        <time>2019-07-06T20:53:45Z</time>
      </trkpt>
      <trkpt lat="42.270065" lon="-8.65971">
        <ele>154.190</ele>
        <time>2019-07-06T20:54:25Z</time>
      </trkpt>
      <trkpt lat="42.27099" lon="-8.659474">
        <ele>161.016</ele>
        <time>2019-07-06T20:55:05Z</time>
      </trkpt>
      <trkpt lat="42.271537" lon="-8.659571">
        <ele>166.043</ele>
        <time>2019-07-06T20:55:45Z</time>
      </trkpt>
      <trkpt lat="42.272018" lon="-8.659855">
        <ele>165.174</ele>
        <time>2019-07-06T20:56:25Z</time>
      </trkpt>
      <trkpt lat="42.272732" lon="-8.660628">
        <ele>156.156</ele>
        <time>2019-07-06T20:57:05Z</time>
      </trkpt>
      <trkpt lat="42.274042" lon="-8.661041">
        <ele>160.021</ele>
        <time>2019-07-06T20:57:45Z</time>
      </trkpt>
      <trkpt lat="42.27484" lon="-8.661987">
        <ele>153.007</ele>
        <time>2019-07-06T20:58:25Z</time>
      </trkpt>
      <trkpt lat="42.274868" lon="-8.662661">
        <ele>142.183</ele>
        <time>2019-07-06T20:59:05Z</time>
      </trkpt>
      <trkpt lat="42.275193" lon="-8.662929">
        <ele>136.188</ele>
        <time>2019-07-06T20:59:45Z</time>
      </trkpt>
      <trkpt lat="42.275366" lon="-8.662983">
        <ele>136.150</ele>
        <time>2019-07-06T21:00:25Z</time>
      </trkpt>
      <trkpt lat="42.275812" lon="-8.662744">
        <ele>138.169</ele>
        <time>2019-07-06T21:01:05Z</time>
      </trkpt>
      <trkpt lat="42.27641" lon="-8.661872">
        <ele>150.176</ele>
        <time>2019-07-06T21:01:45Z</time>
      </trkpt>
      <trkpt lat="42.276942" lon="-8.660842">
        <ele>156.012</ele>
        <time>2019-07-06T21:02:25Z</time>
      </trkpt>
      <trkpt lat="42.277092" lon="-8.660164">
        <ele>153.199</ele>
        <time>2019-07-06T21:03:05Z</time>
      </trkpt>
      <trkpt lat="42.277005" lon="-8.657393">
        <ele>152.023</ele>
        <time>2019-07-06T21:03:45Z</time>
      </trkpt>
      <trkpt lat="42.276628" lon="-8.655867">
        <ele>164.183</ele>
        <time>2019-07-06T21:04:25Z</time>
      </trkpt>
      <trkpt lat="42.2771" lon="-8.655381">
        <ele>156.011</ele>
        <time>2019-07-06T21:05:05Z</time>
      </trkpt>
      <trkpt lat="42.277612" lon="-8.654386">
        <ele>163.007</ele>
        <time>2019-07-06T21:05:45Z</time>
      </trkpt>
      <trkpt lat="42.27924" lon="-8.652911">
        <ele>155.188</ele>
        <time>2019-07-06T21:06:25Z</time>
      </trkpt>
      <trkpt lat="42.279319" lon="-8.652522">
        <ele>154.043</ele>
        <time>2019-07-06T21:07:05Z</time>
      </trkpt>
      <trkpt lat="42.281218" lon="-8.652133">
        <ele>152.185</ele>
        <time>2019-07-06T21:07:45Z</time>
      </trkpt>
      <trkpt lat="42.281726" lon="-8.651725">
        <ele>157.174</ele>
        <time>2019-07-06T21:08:25Z</time>
      </trkpt>
      <trkpt lat="42.282697" lon="-8.650199">
        <ele>155.151</ele>
        <time>2019-07-06T21:09:05Z</time>
      </trkpt>
      <trkpt lat="42.283336" lon="-8.647391">
        <ele>150.027</ele>
        <time>2019-07-06T21:09:45Z</time>
      </trkpt>
      <trkpt lat="42.283348" lon="-8.646254">
        <ele>157.014</ele>
        <time>2019-07-06T21:10:25Z</time>
      </trkpt>
      <trkpt lat="42.282919" lon="-8.645642">
        <ele>176.019</ele>
        <time>2019-07-06T21:11:05Z</time>
      </trkpt>
      <trkpt lat="42.283826" lon="-8.643791">
        <ele>165.009</ele>
        <time>2019-07-06T21:11:45Z</time>
      </trkpt>
      <trkpt lat="42.284723" lon="-8.642619">
        <ele>158.019</ele>
        <time>2019-07-06T21:12:25Z</time>
      </trkpt>
      <trkpt lat="42.284897" lon="-8.64189">
        <ele>149.007</ele>
        <time>2019-07-06T21:13:05Z</time>
      </trkpt>
      <trkpt lat="42.284639" lon="-8.641069">
        <ele>152.177</ele>
        <time>2019-07-06T21:13:45Z</time>
      </trkpt>
      <trkpt lat="42.283917" lon="-8.640173">
        <ele>160.032</ele>
        <time>2019-07-06T21:14:25Z</time>
      </trkpt>
      <trkpt lat="42.283298" lon="-8.639663">
        <ele>160.174</ele>
        <time>2019-07-06T21:15:05Z</time>
      </trkpt>
      <trkpt lat="42.282357" lon="-8.639304">
        <ele>165.013</ele>
        <time>2019-07-06T21:15:45Z</time>
      </trkpt>
      <trkpt lat="42.281937" lon="-8.638902">
        <ele>166.190</ele>
        <time>2019-07-06T21:16:25Z</time>
      </trkpt>
      <trkpt lat="42.281425" lon="-8.63718">
        <ele>153.046</ele>
        <time>2019-07-06T21:17:05Z</time>
      </trkpt>
      <trkpt lat="42.281218" lon="-8.636901">
        <ele>160.013</ele>
        <time>2019-07-06T21:17:45Z</time>
      </trkpt>
      <trkpt lat="42.280817" lon="-8.635104">
        <ele>150.017</ele>
        <time>2019-07-06T21:18:25Z</time>
      </trkpt>
      <trkpt lat="42.280039" lon="-8.634288">
        <ele>171.187</ele>
        <time>2019-07-06T21:19:05Z</time>
      </trkpt>
      <trkpt lat="42.279948" lon="-8.633548">
        <ele>162.015</ele>
        <time>2019-07-06T21:19:45Z</time>
      </trkpt>
      <trkpt lat="42.279349" lon="-8.631676">
        <ele>155.007</ele>
        <time>2019-07-06T21:20:25Z</time>
      </trkpt>
      <trkpt lat="42.278111" lon="-8.630469">
        <ele>179.017</ele>
        <time>2019-07-06T21:21:05Z</time>
      </trkpt>
      <trkpt lat="42.277075" lon="-8.630067">
        <ele>181.042</ele>
        <time>2019-07-06T21:21:45Z</time>
      </trkpt>
      <trkpt lat="42.276416" lon="-8.62923">
        <ele>169.024</ele>
        <time>2019-07-06T21:22:25Z</time>
      </trkpt>
      <trkpt lat="42.27592" lon="-8.62916">
        <ele>179.023</ele>
        <time>2019-07-06T21:23:05Z</time>
      </trkpt>
      <trkpt lat="42.276475" lon="-8.628645">
        <ele>154.040</ele>
        <time>2019-07-06T21:23:45Z</time>
      </trkpt>
      <trkpt lat="42.276392" lon="-8.628414">
        <ele>147.186</ele>
        <time>2019-07-06T21:24:25Z</time>
      </trkpt>
      <trkpt lat="42.276039" lon="-8.628457">
        <ele>152.183</ele>
        <time>2019-07-06T21:25:05Z</time>
      </trkpt>
      <trkpt lat="42.276066" lon="-8.628205">
        <ele>152.017</ele>
        <time>2019-07-06T21:25:45Z</time>
      </trkpt>
      <trkpt lat="42.27717" lon="-8.62776">
        <ele>124.187</ele>
        <time>2019-07-06T21:26:25Z</time>
      </trkpt>
      <trkpt lat="42.278154" lon="-8.627926">
        <ele>127.015</ele>
        <time>2019-07-06T21:27:05Z</time>
      </trkpt>
      <trkpt lat="42.278281" lon="-8.62784">
        <ele>119.007</ele>
        <time>2019-07-06T21:27:45Z</time>
      </trkpt>
      <trkpt lat="42.277495" lon="-8.626424">
        <ele>95.157</ele>
        <time>2019-07-06T21:28:25Z</time>
      </trkpt>
      <trkpt lat="42.276805" lon="-8.625877">
        <ele>99.192</ele>
        <time>2019-07-06T21:29:05Z</time>
      </trkpt>
      <trkpt lat="42.276701" lon="-8.625491">
        <ele>97.164</ele>
        <time>2019-07-06T21:29:45Z</time>
      </trkpt>
      <trkpt lat="42.277039" lon="-8.62453">
        <ele>82.153</ele>
        <time>2019-07-06T21:30:25Z</time>
      </trkpt>
      <trkpt lat="42.277027" lon="-8.623372">
        <ele>72.020</ele>
        <time>2019-07-06T21:31:05Z</time>
      </trkpt>
      <trkpt lat="42.277678" lon="-8.62143">
        <ele>61.186</ele>
        <time>2019-07-06T21:31:45Z</time>
      </trkpt>
      <trkpt lat="42.278039" lon="-8.621167">
        <ele>63.033</ele>
        <time>2019-07-06T21:32:25Z</time>
      </trkpt>
      <trkpt lat="42.278654" lon="-8.621001">
        <ele>72.198</ele>
        <time>2019-07-06T21:33:05Z</time>
      </trkpt>
      <trkpt lat="42.27977" lon="-8.619649">
        <ele>72.015</ele>
        <time>2019-07-06T21:33:45Z</time>
      </trkpt>
      <trkpt lat="42.280468" lon="-8.616457">
        <ele>55.026</ele>
        <time>2019-07-06T21:34:25Z</time>
      </trkpt>
      <trkpt lat="42.28094" lon="-8.615561">
        <ele>56.007</ele>
        <time>2019-07-06T21:35:05Z</time>
      </trkpt>
      <trkpt lat="42.281274" lon="-8.614435">
        <ele>38.165</ele>
        <time>2019-07-06T21:35:45Z</time>
      </trkpt>
      <trkpt lat="42.281167" lon="-8.613871">
        <ele>33.170</ele>
        <time>2019-07-06T21:36:25Z</time>
      </trkpt>
      <trkpt lat="42.28131" lon="-8.613855">
        <ele>31.042</ele>
        <time>2019-07-06T21:37:05Z</time>
      </trkpt>
      <trkpt lat="42.281306" lon="-8.613153">
        <ele>19.151</ele>
        <time>2019-07-06T21:37:45Z</time>
      </trkpt>
      <trkpt lat="42.280059" lon="-8.612943">
        <ele>15.038</ele>
        <time>2019-07-06T21:38:25Z</time>
      </trkpt>
      <trkpt lat="42.280139" lon="-8.612777">
        <ele>12.044</ele>
        <time>2019-07-06T21:39:05Z</time>
      </trkpt>
      <trkpt lat="42.278734" lon="-8.61253">
        <ele>8.031</ele>
        <time>2019-07-06T21:39:45Z</time>
      </trkpt>
      <trkpt lat="42.278507" lon="-8.612262">
        <ele>7.185</ele>
        <time>2019-07-06T21:40:25Z</time>
      </trkpt>
      <trkpt lat="42.278551" lon="-8.611554">
        <ele>7.189</ele>
        <time>2019-07-06T21:41:05Z</time>
      </trkpt>
      <trkpt lat="42.279008" lon="-8.610706">
        <ele>9.017</ele>
        <time>2019-07-06T21:41:45Z</time>
      </trkpt>
      <trkpt lat="42.280496" lon="-8.610358">
        <ele>10.007</ele>
        <time>2019-07-06T21:42:25Z</time>
      </trkpt>
      <trkpt lat="42.280686" lon="-8.610224">
        <ele>10.024</ele>
        <time>2019-07-06T21:43:05Z</time>
      </trkpt>
      <trkpt lat="42.281032" lon="-8.609494">
        <ele>12.039</ele>
        <time>2019-07-06T21:43:45Z</time>
      </trkpt>
      <trkpt lat="42.281583" lon="-8.608947">
        <ele>8.041</ele>
        <time>2019-07-06T21:44:25Z</time>
      </trkpt>
      <trkpt lat="42.281949" lon="-8.608968">
        <ele>8.010</ele>
        <time>2019-07-06T21:45:05Z</time>
      </trkpt>
      <trkpt lat="42.282242" lon="-8.608571">
        <ele>8.157</ele>
        <time>2019-07-06T21:45:45Z</time>
      </trkpt>
    </trkseg>
  </trk>
</gpx>
